IZ1WIY-3 Weather Reports


time (UTC)temp
F
wind
direction
speed
knots
gust
knots
rain 1hr
in
rain 24hr
in
rain mn
in
humidity
%
barometer
mb
20260506172103 64 210 3.5 7.0 0.00 1.13 1.13 76 1011.0
20260506172003 64 210 3.5 7.0 0.00 1.13 1.13 76 1011.0
20260506171903 64 211 3.5 7.0 0.00 1.13 1.13 76 1011.0
20260506171803 64 209 3.5 7.0 0.00 1.13 1.13 76 1010.9
20260506171703 64 207 3.5 7.0 0.00 1.13 1.13 76 1010.9
20260506171603 64 207 3.5 7.0 0.00 1.13 1.13 76 1010.9
20260506171503 64 207 3.5 7.0 0.00 1.13 1.13 76 1010.9
20260506171403 64 205 3.5 7.8 0.00 1.13 1.13 75 1010.9
20260506171304 64 205 3.5 7.8 0.00 1.13 1.13 76 1010.9
20260506171203 64 201 3.5 7.8 0.00 1.13 1.13 76 1010.9
20260506171103 64 201 2.6 7.8 0.00 1.13 1.13 75 1010.9
20260506171003 64 200 2.6 7.8 0.00 1.13 1.13 75 1010.9
20260506170903 64 201 2.6 7.8 0.00 1.13 1.13 75 1010.9
20260506170803 64 201 2.6 7.8 0.00 1.13 1.13 76 1011.0
20260506170703 64 202 1.7 7.8 0.00 1.13 1.13 76 1010.9
20260506170603 64 202 1.7 7.8 0.00 1.13 1.13 75 1011.0
20260506170504 64 201 1.7 7.8 0.00 1.13 1.13 75 1010.9
20260506170403 64 202 1.7 7.8 0.00 1.13 1.13 75 1011.0
20260506170303 64 203 1.7 7.8 0.00 1.13 1.13 75 1010.9
20260506170203 64 204 1.7 7.8 0.00 1.13 1.13 75 1010.9
20260506170103 64 204 1.7 7.8 0.00 1.13 1.13 75 1010.9
20260506170003 64 203 1.7 7.8 0.00 1.13 1.13 74 1010.9
20260506165908 64 202 1.7 7.8 0.00 1.13 1.13 74 1010.9
20260506165803 64 211 1.7 7.8 0.00 1.13 1.13 74 1010.9
20260506165703 64 213 2.6 7.8 0.00 1.13 1.13 74 1010.8
20260506165603 64 207 2.6 6.1 0.00 1.13 1.13 74 1010.9
20260506165503 64 210 2.6 6.1 0.00 1.13 1.13 74 1010.8
20260506165403 64 212 2.6 7.8 0.00 1.13 1.13 74 1010.8
20260506165305 64 210 3.5 7.8 0.00 1.13 1.13 74 1010.8
20260506165204 64 213 3.5 7.8 0.00 1.13 1.13 74 1010.8
20260506165103 64 214 3.5 7.8 0.00 1.13 1.13 75 1010.8
20260506165003 64 212 3.5 8.7 0.00 1.13 1.13 75 1010.8
20260506164903 64 210 4.3 8.7 0.00 1.13 1.13 75 1010.8
20260506164804 64 210 4.3 8.7 0.00 1.13 1.13 75 1010.9
20260506164703 64 213 4.3 8.7 0.00 1.13 1.13 74 1010.8
20260506164603 64 217 5.2 8.7 0.00 1.13 1.13 74 1010.8
20260506164503 64 217 5.2 8.7 0.00 1.13 1.13 74 1010.8
20260506164403 64 217 5.2 9.6 0.00 1.13 1.13 74 1010.8
20260506164303 64 217 5.2 11.3 0.00 1.13 1.13 75 1010.9
20260506164203 64 216 5.2 11.3 0.00 1.13 1.13 74 1010.8
20260506164103 64 215 5.2 11.3 0.00 1.13 1.13 75 1010.9
20260506164003 64 217 5.2 11.3 0.00 1.13 1.13 75 1010.9
20260506163903 64 217 5.2 11.3 0.00 1.13 1.13 75 1010.9
20260506163803 64 216 5.2 11.3 0.00 1.13 1.13 75 1010.9
20260506163703 64 215 5.2 11.3 0.00 1.13 1.13 75 1010.9
20260506163603 64 214 4.3 11.3 0.00 1.13 1.13 75 1010.9
20260506163503 64 212 4.3 11.3 0.00 1.13 1.13 75 1010.9
20260506163403 64 212 4.3 11.3 0.00 1.13 1.13 75 1010.9
20260506163303 64 211 4.3 10.4 0.00 1.13 1.13 75 1010.9
20260506163203 64 209 3.5 10.4 0.00 1.13 1.13 76 1010.9
20260506163103 64 208 3.5 10.4 0.00 1.13 1.13 76 1010.9
20260506163003 64 207 3.5 10.4 0.00 1.13 1.13 76 1010.9
20260506162903 64 205 3.5 10.4 0.00 1.13 1.13 76 1010.9
20260506162803 64 204 2.6 10.4 0.00 1.13 1.13 76 1010.9
20260506162703 64 203 2.6 10.4 0.00 1.13 1.13 76 1010.8
20260506162603 64 206 2.6 8.7 0.00 1.13 1.13 76 1010.9
20260506162503 64 207 2.6 8.7 0.00 1.13 1.13 76 1010.9
20260506162403 64 207 1.7 8.7 0.00 1.13 1.13 76 1010.9
20260506162306 64 209 1.7 8.7 0.00 1.13 1.13 76 1010.9
20260506162203 64 210 1.7 8.7 0.00 1.13 1.13 76 1010.9
20260506162104 64 211 1.7 8.7 0.00 1.13 1.13 76 1010.9
20260506162003 64 214 1.7 7.8 0.00 1.13 1.13 76 1010.9
20260506161903 64 214 1.7 7.8 0.00 1.13 1.13 76 1010.9
20260506161803 64 217 1.7 7.0 0.00 1.13 1.13 75 1010.9
20260506161703 65 220 2.6 7.8 0.00 1.13 1.13 75 1010.9
20260506161603 65 220 2.6 7.8 0.00 1.13 1.13 76 1010.9
20260506161503 65 218 2.6 7.8 0.00 1.13 1.13 76 1010.8
20260506161403 65 214 2.6 7.8 0.00 1.13 1.13 76 1010.8
20260506161303 65 212 2.6 7.8 0.00 1.13 1.13 76 1010.9
20260506161203 65 210 2.6 7.8 0.00 1.13 1.13 76 1010.9
20260506161103 65 213 2.6 7.8 0.00 1.13 1.13 76 1010.9
20260506161003 65 212 2.6 7.8 0.00 1.13 1.13 76 1010.9
20260506160903 65 213 2.6 7.8 0.00 1.13 1.13 75 1010.9
20260506160803 65 212 2.6 7.8 0.00 1.13 1.13 75 1010.8
20260506160703 65 208 2.6 7.8 0.00 1.13 1.13 75 1010.8
20260506160603 65 208 2.6 7.8 0.00 1.13 1.13 75 1010.8
20260506160503 65 208 2.6 7.8 0.00 1.13 1.13 75 1010.9
20260506160403 65 212 2.6 7.0 0.00 1.13 1.13 76 1010.9
20260506160303 65 212 2.6 7.0 0.00 1.13 1.13 77 1010.8
20260506160207 65 214 2.6 7.0 0.00 1.13 1.13 76 1010.9
20260506160103 65 213 2.6 7.0 0.00 1.13 1.13 77 1010.8
20260506160003 65 216 2.6 7.0 0.00 1.13 1.13 77 1010.8
20260506155903 65 217 2.6 7.0 0.00 1.13 1.13 77 1010.8
20260506155803 65 216 2.6 7.0 0.00 1.13 1.13 77 1010.9
20260506155703 65 211 2.6 7.8 0.00 1.13 1.13 77 1010.8
20260506155603 65 208 3.5 7.8 0.00 1.13 1.13 77 1010.8
20260506155503 65 208 3.5 7.8 0.00 1.13 1.13 76 1010.8
20260506155403 65 207 3.5 7.8 0.00 1.13 1.13 76 1010.9
20260506155306 65 211 3.5 8.7 0.00 1.13 1.13 76 1010.8
20260506155203 65 212 3.5 8.7 0.00 1.13 1.13 76 1010.8
20260506155103 65 212 3.5 8.7 0.00 1.13 1.13 76 1010.8
20260506155003 65 211 4.3 8.7 0.00 1.13 1.13 76 1010.8
20260506154903 65 212 4.3 9.6 0.00 1.13 1.13 76 1010.8
20260506154803 65 213 4.3 9.6 0.00 1.13 1.13 76 1010.8
20260506154703 65 216 4.3 9.6 0.00 1.13 1.13 76 1010.8
20260506154603 65 218 4.3 9.6 0.00 1.13 1.13 77 1010.8
20260506154504 65 220 4.3 10.4 0.00 1.13 1.13 77 1010.8
20260506154403 65 220 4.3 10.4 0.00 1.13 1.13 77 1010.8
20260506154303 65 221 4.3 10.4 0.00 1.13 1.13 78 1010.8
20260506154203 65 221 4.3 10.4 0.00 1.13 1.13 78 1010.8
20260506154103 65 220 4.3 10.4 0.00 1.13 1.13 78 1010.8
20260506154003 65 220 4.3 10.4 0.00 1.13 1.13 77 1010.8
20260506153904 65 220 4.3 10.4 0.00 1.13 1.13 77 1010.8
20260506153803 65 220 4.3 10.4 0.00 1.13 1.13 77 1010.9
20260506153703 65 221 4.3 10.4 0.00 1.13 1.13 77 1010.8
20260506153603 65 222 4.3 10.4 0.00 1.13 1.13 77 1010.8
20260506153503 65 221 4.3 10.4 0.00 1.13 1.13 78 1010.8
20260506153403 65 222 4.3 10.4 0.00 1.13 1.13 78 1010.8
20260506153303 65 222 4.3 10.4 0.00 1.13 1.13 78 1010.8
20260506153203 65 222 4.3 10.4 0.00 1.13 1.13 78 1010.8
20260506153103 65 222 4.3 10.4 0.00 1.13 1.13 78 1010.8
20260506153003 65 222 5.2 10.4 0.00 1.13 1.13 78 1010.8
20260506152903 65 223 5.2 10.4 0.00 1.13 1.13 78 1010.8
20260506152803 65 224 5.2 10.4 0.00 1.13 1.13 77 1010.8
20260506152703 65 222 5.2 10.4 0.00 1.13 1.13 78 1010.8
20260506152603 65 223 5.2 10.4 0.00 1.13 1.13 78 1010.8
20260506152503 65 223 5.2 10.4 0.00 1.13 1.13 78 1010.7
20260506152404 65 223 5.2 10.4 0.00 1.13 1.13 77 1010.7
20260506152305 65 221 5.2 10.4 0.00 1.13 1.13 76 1010.7
20260506152203 65 222 5.2 10.4 0.00 1.13 1.13 76 1010.7
20260506152103 66 223 5.2 10.4 0.00 1.13 1.13 76 1010.7
20260506152003 66 222 5.2 10.4 0.00 1.13 1.13 76 1010.7
20260506151903 66 222 5.2 10.4 0.00 1.13 1.13 76 1010.8
20260506151803 66 223 5.2 10.4 0.00 1.13 1.13 76 1010.7
20260506151703 66 223 5.2 9.6 0.00 1.13 1.13 76 1010.7
20260506151603 66 221 5.2 9.6 0.00 1.13 1.13 76 1010.7
20260506151503 66 221 5.2 9.6 0.00 1.13 1.13 76 1010.7
20260506151403 66 220 5.2 9.6 0.00 1.13 1.13 75 1010.7
20260506151303 66 221 5.2 9.6 0.00 1.13 1.13 75 1010.6
20260506151203 66 219 5.2 9.6 0.00 1.13 1.13 76 1010.7
20260506151103 66 219 5.2 9.6 0.00 1.13 1.13 76 1010.7
20260506151003 66 220 5.2 9.6 0.00 1.13 1.13 76 1010.7
20260506150903 66 219 5.2 9.6 0.00 1.13 1.13 76 1010.7
20260506150803 66 218 5.2 9.6 0.00 1.13 1.13 76 1010.6
20260506150703 66 217 5.2 9.6 0.00 1.13 1.13 76 1010.7
20260506150603 66 219 5.2 9.6 0.00 1.13 1.13 75 1010.7
20260506150503 66 219 4.3 8.7 0.00 1.13 1.13 76 1010.7
20260506150403 66 219 4.3 8.7 0.00 1.13 1.13 75 1010.7
20260506150304 66 219 4.3 9.6 0.00 1.13 1.13 75 1010.7
20260506150203 66 221 4.3 9.6 0.00 1.13 1.13 76 1010.7
20260506150103 66 221 4.3 9.6 0.00 1.13 1.13 76 1010.7
20260506150004 66 222 4.3 9.6 0.00 1.13 1.13 75 1010.7
20260506145903 66 222 4.3 9.6 0.00 1.13 1.13 75 1010.7
20260506145803 66 222 4.3 9.6 0.00 1.13 1.13 75 1010.6
20260506145703 66 222 4.3 9.6 0.00 1.13 1.13 76 1010.6
20260506145603 66 220 4.3 9.6 0.00 1.13 1.13 76 1010.7
20260506145503 66 220 4.3 9.6 0.00 1.13 1.13 76 1010.6
20260506145403 66 218 5.2 9.6 0.00 1.13 1.13 76 1010.7
20260506145305 66 218 5.2 8.7 0.00 1.13 1.13 76 1010.6
20260506145203 66 217 5.2 8.7 0.00 1.13 1.13 76 1010.7
20260506145103 66 216 5.2 8.7 0.00 1.13 1.13 75 1010.7
20260506145003 66 215 5.2 8.7 0.00 1.13 1.13 76 1010.7
20260506144903 66 215 5.2 8.7 0.00 1.13 1.13 75 1010.6
20260506144803 66 215 5.2 8.7 0.00 1.13 1.13 75 1010.7
20260506144703 66 214 5.2 8.7 0.00 1.13 1.13 75 1010.6
20260506144603 66 215 5.2 8.7 0.00 1.13 1.13 75 1010.6
20260506144504 66 213 5.2 8.7 0.00 1.13 1.13 74 1010.7
20260506144403 66 214 5.2 8.7 0.00 1.13 1.13 74 1010.7
20260506144303 66 213 5.2 8.7 0.00 1.13 1.13 75 1010.6
20260506144203 66 213 5.2 8.7 0.00 1.13 1.13 75 1010.6
20260506144103 66 213 5.2 8.7 0.00 1.13 1.13 74 1010.7
20260506144003 66 212 5.2 8.7 0.00 1.13 1.13 74 1010.6
20260506143903 67 211 5.2 8.7 0.00 1.13 1.13 75 1010.6
20260506143803 67 213 5.2 8.7 0.00 1.13 1.13 74 1010.6
20260506143703 67 214 5.2 8.7 0.00 1.13 1.13 74 1010.6
20260506143603 67 213 5.2 8.7 0.00 1.13 1.13 75 1010.6
20260506143503 67 214 5.2 8.7 0.00 1.13 1.13 74 1010.6
20260506143403 67 215 5.2 8.7 0.00 1.13 1.13 74 1010.6
20260506143303 67 215 5.2 7.8 0.00 1.13 1.13 74 1010.6
20260506143203 66 215 5.2 7.8 0.00 1.13 1.13 75 1010.6
20260506143103 66 215 5.2 7.8 0.00 1.13 1.13 75 1010.6
20260506143003 66 215 4.3 7.8 0.00 1.13 1.13 75 1010.6
20260506142903 67 214 4.3 7.8 0.00 1.13 1.13 75 1010.5
20260506142803 67 212 4.3 7.8 0.00 1.13 1.13 74 1010.6
20260506142703 67 212 4.3 7.8 0.00 1.13 1.13 74 1010.6
20260506142603 67 212 4.3 7.8 0.00 1.13 1.13 75 1010.6
20260506142503 67 211 3.5 7.8 0.00 1.13 1.13 75 1010.6
20260506142403 67 208 3.5 7.8 0.00 1.13 1.13 76 1010.6
20260506142306 67 208 3.5 7.8 0.00 1.13 1.13 76 1010.6
20260506142203 67 207 3.5 7.8 0.00 1.13 1.13 76 1010.6
20260506142103 67 204 3.5 7.8 0.00 1.13 1.13 75 1010.5
20260506142004 67 204 2.6 7.8 0.00 1.13 1.13 75 1010.5
20260506141903 67 204 2.6 7.8 0.00 1.13 1.13 75 1010.6
20260506141803 67 205 2.6 7.8 0.00 1.13 1.13 76 1010.5
20260506141703 67 202 2.6 7.8 0.00 1.13 1.13 75 1010.5
20260506141606 67 202 2.6 7.8 0.00 1.13 1.13 75 1010.5
20260506141503 67 204 2.6 7.8 0.00 1.13 1.13 75 1010.5
20260506141406 66 205 2.6 7.8 0.00 1.13 1.13 76 1010.5
20260506141303 66 205 2.6 7.0 0.00 1.13 1.13 76 1010.6
20260506141203 66 205 2.6 7.0 0.00 1.13 1.13 76 1010.6
20260506141103 67 212 2.6 7.0 0.00 1.13 1.13 76 1010.5
20260506141003 66 215 2.6 7.0 0.00 1.13 1.13 76 1010.5
20260506140903 66 215 3.5 7.0 0.00 1.13 1.13 76 1010.5
20260506140803 66 212 3.5 8.7 0.00 1.13 1.13 76 1010.6
20260506140703 66 215 3.5 8.7 0.00 1.13 1.13 77 1010.5
20260506140603 66 212 3.5 8.7 0.00 1.13 1.13 77 1010.5
20260506140503 66 206 3.5 8.7 0.00 1.13 1.13 77 1010.5
20260506140403 66 202 4.3 8.7 0.00 1.13 1.13 77 1010.6
20260506140303 66 201 4.3 8.7 0.00 1.13 1.13 77 1010.6
20260506140203 66 203 4.3 8.7 0.00 1.13 1.13 77 1010.6
20260506140003 66 203 4.3 8.7 0.00 1.13 1.13 77 1010.6
20260506135903 66 204 4.3 8.7 0.00 1.13 1.13 77 1010.6
20260506135803 66 206 4.3 8.7 0.00 1.13 1.13 78 1010.6
20260506135703 66 206 4.3 8.7 0.00 1.13 1.13 78 1010.6
20260506135603 66 208 4.3 8.7 0.00 1.13 1.13 78 1010.6
20260506135503 66 211 4.3 8.7 0.00 1.13 1.13 78 1010.6
20260506135403 66 213 4.3 8.7 0.00 1.13 1.13 78 1010.7
20260506135306 66 214 4.3 8.7 0.00 1.13 1.13 79 1010.6
20260506135203 66 215 4.3 8.7 0.00 1.13 1.13 79 1010.7
20260506135103 66 214 4.3 8.7 0.00 1.13 1.13 79 1010.6
20260506135003 66 212 4.3 8.7 0.00 1.13 1.13 78 1010.6
20260506134903 66 211 4.3 8.7 0.00 1.13 1.13 78 1010.7
20260506134803 66 209 4.3 8.7 0.00 1.13 1.13 78 1010.7
20260506134703 66 208 4.3 8.7 0.00 1.13 1.13 78 1010.7
20260506134603 66 205 4.3 8.7 0.00 1.13 1.13 77 1010.7
20260506134503 66 203 4.3 8.7 0.00 1.13 1.13 78 1010.7
20260506134403 66 205 3.5 8.7 0.00 1.13 1.13 78 1010.7
20260506134303 66 203 3.5 7.8 0.00 1.13 1.13 79 1010.7
20260506134203 66 202 3.5 7.8 0.00 1.13 1.13 79 1010.7
20260506134103 66 202 3.5 7.8 0.00 1.13 1.13 79 1010.7
20260506134004 66 202 3.5 7.8 0.00 1.13 1.13 79 1010.7
20260506133903 66 202 3.5 7.8 0.00 1.13 1.13 79 1010.7
20260506133803 66 202 3.5 7.8 0.00 1.13 1.13 79 1010.7
20260506133703 66 201 3.5 7.8 0.00 1.13 1.13 78 1010.7
20260506133603 66 202 3.5 7.8 0.00 1.13 1.13 78 1010.8
20260506133503 66 206 3.5 8.7 0.00 1.13 1.13 78 1010.7
20260506133403 66 206 3.5 8.7 0.00 1.13 1.13 77 1010.8
20260506133303 66 207 3.5 8.7 0.00 1.13 1.13 78 1010.8
20260506133203 67 210 3.5 8.7 0.00 1.13 1.13 77 1010.8
20260506133103 67 210 3.5 8.7 0.00 1.13 1.13 77 1010.8
20260506133003 67 210 3.5 8.7 0.00 1.13 1.13 77 1010.8
20260506132903 67 211 3.5 8.7 0.00 1.13 1.13 77 1010.8
20260506132803 67 212 3.5 8.7 0.00 1.13 1.13 77 1010.9
20260506132703 67 213 3.5 8.7 0.00 1.13 1.13 77 1010.8
20260506132603 67 213 3.5 8.7 0.00 1.13 1.13 77 1010.9
20260506132503 67 210 3.5 8.7 0.00 1.13 1.13 77 1010.9
20260506132403 67 211 3.5 8.7 0.00 1.13 1.13 77 1010.9
20260506132306 67 211 3.5 7.8 0.00 1.13 1.13 78 1010.9
20260506132203 67 212 3.5 8.7 0.00 1.13 1.13 78 1010.9
20260506132103 67 210 3.5 8.7 0.00 1.13 1.13 78 1010.9
20260506132003 67 209 3.5 8.7 0.00 1.13 1.13 78 1010.9
20260506131904 67 208 3.5 8.7 0.00 1.13 1.13 77 1010.9
20260506131803 67 207 3.5 8.7 0.00 1.13 1.13 78 1010.9
20260506131703 67 208 3.5 8.7 0.00 1.13 1.13 78 1010.9
20260506131603 67 210 3.5 8.7 0.00 1.13 1.13 78 1010.9
20260506131503 67 211 3.5 8.7 0.00 1.13 1.13 78 1010.9
20260506131403 67 211 3.5 8.7 0.00 1.13 1.13 77 1010.9
20260506131303 67 210 3.5 8.7 0.00 1.13 1.13 78 1010.9
20260506131203 66 209 3.5 7.8 0.00 1.13 1.13 78 1010.9
20260506131103 66 213 3.5 10.4 0.00 1.13 1.13 79 1010.9
20260506131003 66 216 4.3 10.4 0.00 1.13 1.13 78 1010.9
20260506130903 66 216 4.3 10.4 0.00 1.13 1.13 78 1010.9
20260506130803 66 219 4.3 10.4 0.00 1.13 1.13 78 1010.9
20260506130703 66 218 4.3 10.4 0.00 1.13 1.13 79 1010.9
20260506130603 66 216 4.3 10.4 0.00 1.13 1.13 79 1010.9
20260506130505 66 215 4.3 10.4 0.00 1.13 1.13 79 1010.9
20260506130403 66 217 4.3 10.4 0.00 1.13 1.13 79 1010.9
20260506130303 66 216 4.3 10.4 0.00 1.13 1.13 79 1010.9
20260506130203 66 213 4.3 10.4 0.00 1.13 1.13 79 1010.9
20260506130103 66 211 4.3 10.4 0.00 1.13 1.13 79 1010.9
20260506130003 66 211 4.3 10.4 0.00 1.13 1.13 79 1011.0
20260506125903 66 210 4.3 10.4 0.00 1.13 1.13 79 1010.9
20260506125803 66 206 4.3 10.4 0.00 1.13 1.13 79 1010.9
20260506125703 66 206 5.2 12.2 0.00 1.13 1.13 79 1011.0
20260506125603 66 209 5.2 12.2 0.00 1.13 1.13 79 1010.9
20260506125503 66 210 5.2 12.2 0.00 1.13 1.13 78 1010.9
20260506125403 66 209 5.2 12.2 0.00 1.13 1.13 78 1010.9
20260506125305 66 209 5.2 12.2 0.00 1.13 1.13 78 1010.9
20260506125203 66 212 5.2 12.2 0.00 1.13 1.13 78 1010.9
20260506125103 66 214 5.2 12.2 0.00 1.13 1.13 78 1010.9
20260506125003 66 214 4.3 12.2 0.00 1.13 1.13 78 1010.9
20260506124903 66 216 4.3 12.2 0.00 1.13 1.13 78 1011.0
20260506124803 66 219 4.3 12.2 0.00 1.13 1.13 78 1010.9
20260506124703 66 220 3.5 12.2 0.00 1.13 1.13 78 1010.9
20260506124603 66 221 3.5 10.4 0.00 1.13 1.13 78 1010.9
20260506124503 66 220 3.5 10.4 0.00 1.13 1.13 77 1010.9
20260506124403 66 219 2.6 10.4 0.00 1.13 1.13 76 1011.0
20260506124303 66 220 2.6 9.6 0.00 1.13 1.13 76 1011.0
20260506124203 66 220 2.6 9.6 0.00 1.13 1.13 77 1011.0
20260506124103 66 220 2.6 8.7 0.00 1.13 1.13 76 1011.0
20260506124003 66 219 2.6 8.7 0.00 1.13 1.13 75 1011.0
20260506123903 67 220 2.6 8.7 0.00 1.13 1.13 75 1010.9
20260506123803 67 218 2.6 8.7 0.00 1.13 1.13 75 1010.9
20260506123703 67 219 2.6 8.7 0.00 1.13 1.13 75 1010.9
20260506123603 67 216 2.6 8.7 0.00 1.13 1.13 75 1010.9
20260506123503 67 216 2.6 8.7 0.00 1.13 1.13 75 1010.9
20260506123403 67 216 2.6 8.7 0.00 1.13 1.13 75 1010.9
20260506123303 67 217 2.6 8.7 0.00 1.13 1.13 75 1010.9
20260506123203 67 216 3.5 8.7 0.00 1.13 1.13 74 1010.9
20260506123103 67 213 3.5 8.7 0.00 1.13 1.13 74 1010.9
20260506123003 67 213 3.5 8.7 0.00 1.13 1.13 74 1010.9
20260506122904 67 209 3.5 8.7 0.00 1.13 1.13 74 1010.9
20260506122803 67 207 3.5 8.7 0.00 1.13 1.13 73 1010.9
20260506122703 67 204 3.5 7.8 0.00 1.13 1.13 73 1010.9
20260506122603 67 205 3.5 7.8 0.00 1.13 1.13 72 1010.9
20260506122503 67 205 3.5 7.8 0.00 1.13 1.13 71 1011.0
20260506122403 67 205 3.5 7.8 0.00 1.13 1.13 71 1010.9
20260506122305 67 204 3.5 7.8 0.00 1.13 1.13 72 1010.9
20260506122203 67 206 4.3 7.8 0.00 1.13 1.13 71 1010.9
20260506122103 67 208 4.3 7.8 0.00 1.13 1.13 71 1011.0
20260506122003 67 209 4.3 8.7 0.00 1.13 1.13 71 1011.0
20260506121903 67 211 4.3 8.7 0.00 1.13 1.13 70 1010.9
20260506121803 67 214 4.3 8.7 0.00 1.13 1.13 72 1010.9
20260506121703 67 215 4.3 8.7 0.00 1.13 1.13 72 1010.9
20260506121603 67 214 4.3 11.3 0.00 1.13 1.13 72 1010.9
20260506121503 67 215 4.3 11.3 0.00 1.13 1.13 72 1010.9
20260506121403 67 214 4.3 11.3 0.00 1.13 1.13 71 1010.9
20260506121303 67 214 4.3 11.3 0.00 1.13 1.13 71 1010.9
20260506121203 67 213 4.3 11.3 0.00 1.13 1.13 72 1010.9
20260506121104 67 211 3.5 11.3 0.00 1.13 1.13 71 1010.9
20260506121003 66 209 3.5 11.3 0.00 1.13 1.13 72 1010.9
20260506120903 66 207 3.5 11.3 0.00 1.13 1.13 71 1010.8
20260506120803 66 205 3.5 11.3 0.00 1.13 1.13 72 1010.8
20260506120703 66 204 3.5 11.3 0.00 1.13 1.13 73 1010.9
20260506120603 66 203 3.5 9.6 0.00 1.13 1.13 74 1010.8
20260506120503 66 201 3.5 9.6 0.00 1.13 1.13 77 1010.9
20260506120404 66 202 3.5 9.6 0.00 1.13 1.13 77 1010.8
20260506120303 66 204 3.5 9.6 0.00 1.13 1.13 78 1010.8
20260506120203 66 202 3.5 9.6 0.00 1.13 1.13 77 1010.8
20260506120103 66 202 3.5 9.6 0.00 1.13 1.13 77 1010.8
20260506120003 66 204 3.5 9.6 0.00 1.13 1.13 77 1010.8
20260506115903 66 206 3.5 7.8 0.00 1.13 1.13 78 1010.8
20260506115803 66 206 3.5 7.8 0.00 1.13 1.13 79 1010.8
20260506115703 66 207 2.6 7.8 0.00 1.13 1.13 79 1010.8
20260506115603 66 209 3.5 9.6 0.00 1.13 1.13 79 1010.8
20260506115503 66 211 3.5 9.6 0.00 1.13 1.13 78 1010.8
20260506115403 66 212 3.5 9.6 0.00 1.13 1.13 79 1010.8
20260506115306 66 211 3.5 9.6 0.00 1.13 1.13 79 1010.7
20260506115203 66 212 3.5 9.6 0.00 1.13 1.13 79 1010.8
20260506115103 66 212 4.3 9.6 0.00 1.13 1.13 79 1010.8
20260506115003 66 210 4.3 9.6 0.00 1.13 1.13 79 1010.8
20260506114903 66 209 4.3 11.3 0.00 1.13 1.13 80 1010.7
20260506114803 66 210 5.2 11.3 0.00 1.13 1.13 80 1010.7
20260506114703 66 210 5.2 11.3 0.00 1.13 1.13 79 1010.8
20260506114603 66 211 5.2 11.3 0.00 1.13 1.13 79 1010.7
20260506114503 66 211 5.2 11.3 0.00 1.13 1.13 79 1010.7
20260506114403 66 211 5.2 11.3 0.00 1.13 1.13 79 1010.8
20260506114303 66 211 5.2 11.3 0.00 1.13 1.13 79 1010.7
20260506114203 66 211 5.2 11.3 0.00 1.13 1.13 79 1010.7
20260506114103 66 213 4.3 11.3 0.00 1.13 1.13 79 1010.8
20260506113904 66 217 4.3 9.6 0.00 1.13 1.13 80 1010.8
20260506113803 66 218 4.3 9.6 0.00 1.13 1.13 79 1010.8
20260506113703 66 217 4.3 9.6 0.00 1.13 1.13 79 1010.8
20260506113603 66 216 4.3 9.6 0.00 1.13 1.13 79 1010.8
20260506113503 66 215 4.3 9.6 0.00 1.13 1.13 79 1010.8
20260506113403 66 215 4.3 9.6 0.00 1.13 1.13 79 1010.8
20260506113303 66 216 4.3 9.6 0.00 1.13 1.13 79 1010.8
20260506113203 66 217 3.5 9.6 0.00 1.13 1.13 79 1010.7
20260506113103 66 215 3.5 9.6 0.00 1.13 1.13 80 1010.8
20260506113003 66 214 4.3 9.6 0.00 1.13 1.13 79 1010.8
20260506112903 66 213 4.3 9.6 0.00 1.13 1.13 80 1010.7
20260506112803 66 213 4.3 9.6 0.00 1.13 1.13 80 1010.8
20260506112703 66 214 4.3 10.4 0.00 1.13 1.13 80 1010.8
20260506112603 66 214 4.3 10.4 0.00 1.13 1.13 80 1010.8
20260506112503 65 213 4.3 10.4 0.00 1.13 1.13 80 1010.8
20260506112403 65 213 4.3 10.4 0.00 1.13 1.13 80 1010.8
20260506112305 65 211 5.2 10.4 0.00 1.13 1.13 80 1010.8
20260506112203 65 209 5.2 10.4 0.00 1.13 1.13 80 1010.8
20260506112103 65 211 5.2 10.4 0.00 1.13 1.13 80 1010.8
20260506112004 65 212 6.1 10.4 0.00 1.13 1.13 80 1010.7
20260506111903 65 210 6.1 10.4 0.00 1.13 1.13 80 1010.7
20260506111803 65 208 6.1 10.4 0.00 1.13 1.13 80 1010.8
20260506111703 65 207 6.1 10.4 0.00 1.13 1.13 81 1010.8
20260506111603 65 208 6.1 11.3 0.00 1.13 1.13 81 1010.8
20260506111503 65 209 6.1 11.3 0.00 1.13 1.13 81 1010.7
20260506111303 65 211 6.1 11.3 0.00 1.13 1.13 82 1010.7
20260506111203 65 211 6.1 12.2 0.00 1.13 1.13 82 1010.7
20260506111103 65 210 6.1 12.2 0.00 1.13 1.13 81 1010.7
20260506111003 65 207 6.1 12.2 0.00 1.13 1.13 81 1010.8
20260506110903 65 207 6.1 12.2 0.00 1.13 1.13 81 1010.8
20260506110803 65 207 7.0 12.2 0.00 1.13 1.13 80 1010.7
20260506110703 65 207 7.0 12.2 0.00 1.13 1.13 81 1010.8
20260506110603 65 203 7.0 12.2 0.00 1.13 1.13 81 1010.8
20260506110503 65 199 7.0 13.0 0.00 1.13 1.13 81 1010.7
20260506110403 65 195 7.0 13.0 0.00 1.13 1.13 81 1010.7
20260506110303 65 195 7.0 13.0 0.00 1.13 1.13 81 1010.7
20260506110203 65 193 7.0 13.0 0.00 1.13 1.13 81 1010.7
20260506110104 65 194 7.0 14.8 0.00 1.13 1.13 81 1010.7
20260506110003 65 196 7.0 14.8 0.00 1.13 1.13 83 1010.6
20260506105903 65 197 7.0 14.8 0.00 1.13 1.13 84 1010.6
20260506105803 65 199 7.0 14.8 0.00 1.13 1.13 83 1010.6
20260506105703 65 202 7.0 14.8 0.00 1.13 1.13 83 1010.6
20260506105603 65 205 7.0 14.8 0.00 1.13 1.13 83 1010.6
20260506105504 65 209 7.0 14.8 0.00 1.13 1.13 83 1010.6
20260506105403 65 211 7.0 14.8 0.00 1.13 1.13 83 1010.6
20260506105305 65 214 7.0 14.8 0.00 1.13 1.13 83 1010.6
20260506105203 65 216 7.0 14.8 0.00 1.13 1.13 82 1010.6
20260506105103 65 217 7.0 13.9 0.00 1.13 1.13 82 1010.6
20260506105003 65 219 7.0 15.6 0.00 1.13 1.13 82 1010.6
20260506104903 65 220 7.0 15.6 0.00 1.13 1.13 82 1010.6
20260506104803 65 220 6.1 15.6 0.00 1.13 1.13 82 1010.6
20260506104703 65 219 6.1 15.6 0.00 1.13 1.13 82 1010.6
20260506104603 65 217 6.1 15.6 0.00 1.13 1.13 82 1010.6
20260506104503 65 217 6.1 15.6 0.00 1.13 1.13 83 1010.6
20260506104403 65 218 7.0 15.6 0.00 1.13 1.13 83 1010.6
20260506104303 65 217 7.0 15.6 0.00 1.13 1.13 82 1010.6
20260506104203 65 218 7.0 15.6 0.00 1.13 1.13 82 1010.6
20260506104103 65 217 7.0 15.6 0.00 1.13 1.13 81 1010.7
20260506104003 65 217 7.0 15.6 0.00 1.13 1.13 81 1010.6
20260506103903 65 215 7.8 16.5 0.00 1.13 1.13 82 1010.7
20260506103803 65 215 7.8 16.5 0.00 1.13 1.13 82 1010.6
20260506103703 65 215 7.8 16.5 0.00 1.13 1.13 82 1010.6
20260506103603 65 218 7.8 16.5 0.00 1.13 1.13 82 1010.6
20260506103503 65 218 7.8 16.5 0.00 1.13 1.13 82 1010.6
20260506103403 65 217 7.8 16.5 0.00 1.13 1.13 82 1010.6
20260506103303 65 217 7.8 16.5 0.00 1.13 1.13 82 1010.6
20260506103203 65 216 7.8 17.4 0.00 1.13 1.13 82 1010.6
20260506103103 65 217 7.8 17.4 0.00 1.13 1.13 82 1010.5
20260506103003 65 217 7.8 17.4 0.00 1.13 1.13 81 1010.6
20260506102903 65 217 7.8 17.4 0.00 1.13 1.13 82 1010.6
20260506102803 65 217 7.8 17.4 0.00 1.13 1.13 82 1010.6
20260506102703 65 217 7.8 17.4 0.00 1.13 1.13 82 1010.5
20260506102603 65 216 7.8 17.4 0.00 1.13 1.13 82 1010.6
20260506102503 65 216 7.8 17.4 0.00 1.13 1.13 82 1010.6
20260506102404 65 217 7.8 17.4 0.00 1.13 1.13 82 1010.6
20260506102305 65 218 7.8 17.4 0.00 1.13 1.13 83 1010.6
20260506102203 65 218 7.8 17.4 0.00 1.13 1.13 83 1010.6
20260506102103 65 217 7.8 17.4 0.00 1.13 1.13 83 1010.6
20260506102004 65 218 7.8 17.4 0.00 1.13 1.13 83 1010.5
20260506101903 65 219 7.0 17.4 0.00 1.13 1.13 83 1010.6
20260506101803 65 219 7.0 17.4 0.00 1.13 1.13 83 1010.6
20260506101703 65 218 7.0 17.4 0.00 1.13 1.13 83 1010.6
20260506101603 65 219 7.0 17.4 0.00 1.13 1.13 83 1010.6
20260506101503 65 218 7.0 17.4 0.00 1.13 1.13 84 1010.6
20260506101403 65 217 7.0 17.4 0.00 1.13 1.13 83 1010.5
20260506101303 65 215 7.0 17.4 0.00 1.13 1.13 83 1010.6
20260506101203 65 215 7.0 16.5 0.00 1.13 1.13 84 1010.5
20260506101103 65 215 7.0 16.5 0.00 1.13 1.13 83 1010.5
20260506101003 65 214 7.0 16.5 0.00 1.13 1.13 83 1010.5
20260506100903 65 212 6.1 15.6 0.00 1.13 1.13 84 1010.5
20260506100803 65 211 6.1 15.6 0.00 1.13 1.13 84 1010.5
20260506100703 65 212 6.1 15.6 0.00 1.13 1.13 83 1010.5
20260506100604 65 212 7.0 15.6 0.00 1.13 1.13 84 1010.5
20260506100403 65 214 7.0 15.6 0.00 1.13 1.13 84 1010.5
20260506100303 65 214 7.0 15.6 0.00 1.13 1.13 84 1010.5
20260506100203 65 214 7.0 15.6 0.00 1.13 1.13 84 1010.4
20260506100103 65 214 7.0 15.6 0.00 1.13 1.13 84 1010.5
20260506100004 65 214 7.8 14.8 0.00 1.13 1.13 85 1010.4
20260506095903 65 214 7.8 14.8 0.00 1.13 1.13 85 1010.4
20260506095803 65 215 7.8 14.8 0.00 1.13 1.13 85 1010.5
20260506095703 65 212 7.8 14.8 0.00 1.13 1.13 85 1010.4
20260506095603 65 211 7.8 14.8 0.00 1.13 1.13 85 1010.4
20260506095503 65 210 7.8 18.2 0.00 1.13 1.13 85 1010.4
20260506095403 65 210 7.8 18.2 0.00 1.13 1.13 85 1010.4
20260506095305 65 209 7.8 18.2 0.00 1.13 1.13 85 1010.4
20260506095203 65 208 7.8 18.2 0.00 1.13 1.13 85 1010.4
20260506095103 65 207 7.8 18.2 0.00 1.13 1.13 85 1010.4
20260506095003 65 207 7.8 18.2 0.00 1.13 1.13 85 1010.3
20260506094903 65 205 7.8 18.2 0.00 1.13 1.13 85 1010.3
20260506094803 65 203 7.8 18.2 0.00 1.13 1.13 85 1010.4
20260506094703 65 207 7.8 18.2 0.00 1.13 1.13 85 1010.4
20260506094603 65 209 8.7 18.2 0.00 1.13 1.13 85 1010.3
20260506094503 65 210 8.7 16.5 0.00 1.13 1.13 85 1010.4
20260506094403 65 210 8.7 19.1 0.00 1.13 1.13 86 1010.3
20260506094303 65 211 8.7 19.1 0.00 1.13 1.13 86 1010.3
20260506094203 65 211 8.7 19.1 0.00 1.13 1.13 86 1010.3
20260506094103 65 212 8.7 19.1 0.00 1.13 1.13 86 1010.4
20260506094003 65 213 8.7 19.1 0.00 1.13 1.13 85 1010.3
20260506093903 65 215 8.7 19.1 0.00 1.13 1.13 86 1010.3
20260506093803 65 215 8.7 19.1 0.00 1.13 1.13 86 1010.3
20260506093703 65 214 7.8 19.1 0.00 1.13 1.13 85 1010.3
20260506093603 65 213 7.8 19.1 0.00 1.13 1.13 85 1010.3
20260506093503 65 211 7.8 19.1 0.00 1.13 1.13 85 1010.3
20260506093403 64 211 7.8 17.4 0.00 1.13 1.13 85 1010.2
20260506093303 65 209 7.8 17.4 0.00 1.13 1.13 85 1010.2
20260506093203 64 208 7.8 17.4 0.00 1.13 1.13 85 1010.2
20260506093103 64 207 7.8 17.4 0.00 1.13 1.13 85 1010.2
20260506093003 65 205 7.8 14.8 0.00 1.13 1.13 85 1010.1
20260506092903 64 203 7.8 14.8 0.00 1.13 1.13 86 1010.1
20260506092803 65 204 7.8 14.8 0.00 1.13 1.13 86 1010.1
20260506092703 65 202 7.8 14.8 0.00 1.13 1.13 86 1010.1
20260506092603 65 200 7.8 15.6 0.00 1.13 1.13 86 1010.1
20260506092503 65 199 7.8 15.6 0.00 1.13 1.13 86 1010.1
20260506092403 65 200 7.8 15.6 0.00 1.13 1.13 86 1010.1
20260506092305 65 199 7.8 15.6 0.00 1.13 1.13 86 1010.0
20260506092203 65 201 7.8 15.6 0.00 1.13 1.13 86 1010.1
20260506092103 65 201 7.8 15.6 0.00 1.13 1.13 86 1010.0
20260506092003 65 201 7.8 15.6 0.00 1.13 1.13 86 1010.0
20260506091903 65 202 7.8 15.6 0.01 1.13 1.13 86 1010.0
20260506091803 65 202 7.8 16.5 0.01 1.13 1.13 86 1010.0
20260506091703 65 202 7.8 16.5 0.01 1.13 1.13 86 1010.0
20260506091603 65 203 7.8 16.5 0.01 1.13 1.13 86 1010.0
20260506091503 65 204 7.8 16.5 0.01 1.13 1.13 86 1010.0
20260506091403 65 203 7.8 16.5 0.01 1.13 1.13 86 1010.0
20260506091303 65 204 7.8 16.5 0.01 1.13 1.13 87 1010.0
20260506091203 65 202 7.8 16.5 0.01 1.13 1.13 87 1010.0
20260506091103 65 202 7.8 16.5 0.01 1.13 1.13 87 1010.0
20260506091003 65 202 7.8 16.5 0.01 1.13 1.13 87 1010.0
20260506090903 65 201 7.8 16.5 0.01 1.13 1.13 87 1010.0
20260506090803 65 202 7.8 14.8 0.01 1.13 1.13 87 1010.0
20260506090703 65 202 7.8 15.6 0.01 1.13 1.13 86 1010.0
20260506090603 64 201 7.8 15.6 0.01 1.13 1.13 86 1010.0
20260506090503 64 202 7.8 15.6 0.01 1.13 1.13 86 1010.0
20260506090403 64 203 7.8 15.6 0.01 1.13 1.13 86 1010.0
20260506090303 64 204 7.8 15.6 0.01 1.13 1.13 86 1010.0
20260506090203 64 206 7.8 15.6 0.01 1.13 1.13 86 1010.0
20260506090003 64 211 7.8 21.7 0.01 1.13 1.13 86 1009.9
20260506085903 64 214 7.8 21.7 0.01 1.13 1.13 87 1009.9
20260506085803 64 214 7.8 21.7 0.01 1.13 1.13 86 1009.9
20260506085703 64 215 7.8 21.7 0.01 1.13 1.13 86 1009.9
20260506085603 64 215 7.8 21.7 0.01 1.13 1.13 86 1009.8
20260506085503 64 214 7.0 21.7 0.01 1.13 1.13 86 1009.9
20260506085403 64 212 7.0 21.7 0.01 1.13 1.13 86 1009.9
20260506085305 64 212 7.0 21.7 0.01 1.13 1.13 86 1009.9
20260506085203 64 212 7.0 21.7 0.01 1.13 1.13 86 1009.9
20260506085104 64 211 6.1 16.5 0.01 1.13 1.13 86 1009.9
20260506085003 64 210 6.1 16.5 0.01 1.13 1.13 87 1009.9
20260506084903 64 209 6.1 16.5 0.01 1.13 1.13 87 1009.9
20260506084803 64 209 6.1 16.5 0.01 1.13 1.13 87 1009.9
20260506084703 64 209 6.1 16.5 0.01 1.13 1.13 86 1009.9
20260506084603 64 210 6.1 16.5 0.01 1.13 1.13 87 1009.9
20260506084503 64 211 6.1 16.5 0.01 1.13 1.13 87 1009.9
20260506084403 64 214 6.1 16.5 0.01 1.13 1.13 87 1009.8
20260506084303 64 213 6.1 16.5 0.01 1.13 1.13 87 1009.8
20260506084203 64 213 6.1 15.6 0.01 1.13 1.13 87 1009.8
20260506084103 64 211 6.1 12.2 0.01 1.13 1.13 88 1009.8
20260506084003 64 211 6.1 15.6 0.01 1.13 1.13 88 1009.8
20260506083903 64 212 7.0 15.6 0.01 1.13 1.13 88 1009.8
20260506083803 64 211 7.0 15.6 0.01 1.13 1.13 87 1009.8
20260506083703 64 211 7.0 15.6 0.01 1.13 1.13 87 1009.8
20260506083603 64 211 7.8 15.6 0.01 1.13 1.13 87 1009.8
20260506083503 64 210 7.8 18.2 0.01 1.13 1.13 87 1009.7
20260506083403 64 208 7.8 18.2 0.01 1.13 1.13 87 1009.7
20260506083303 64 209 7.8 18.2 0.01 1.13 1.13 87 1009.8
20260506083203 64 206 7.8 18.2 0.01 1.13 1.13 87 1009.8
20260506083103 64 206 7.8 18.2 0.01 1.13 1.13 87 1009.8
20260506083003 64 205 7.8 18.2 0.01 1.13 1.13 87 1009.7
20260506082903 64 205 7.8 18.2 0.01 1.13 1.13 87 1009.8
20260506082803 64 205 7.8 18.2 0.01 1.13 1.13 86 1009.7
20260506082703 64 207 7.8 18.2 0.01 1.13 1.13 86 1009.7
20260506082603 64 207 7.8 18.2 0.01 1.13 1.13 86 1009.7
20260506082503 64 208 7.0 18.2 0.01 1.13 1.13 86 1009.6
20260506082403 64 211 7.0 18.2 0.01 1.13 1.13 86 1009.6
20260506082305 64 211 7.0 18.2 0.01 1.13 1.13 87 1009.6
20260506082203 64 213 7.0 17.4 0.01 1.13 1.13 87 1009.6
20260506082103 64 213 7.0 17.4 0.01 1.13 1.13 87 1009.5
20260506082003 64 213 6.1 17.4 0.01 1.13 1.13 87 1009.4
20260506081803 64 213 6.1 17.4 0.00 1.12 1.12 87 1009.4
20260506081704 64 212 6.1 17.4 0.00 1.12 1.12 88 1009.5
20260506081603 64 209 6.1 14.8 0.00 1.12 1.12 88 1009.3
20260506081503 64 209 6.1 15.6 0.00 1.12 1.12 87 1009.4
20260506081403 64 207 6.1 15.6 0.00 1.12 1.12 87 1009.4
20260506081303 64 209 6.1 15.6 0.00 1.12 1.12 86 1009.5
20260506081203 64 208 5.2 15.6 0.00 1.12 1.12 86 1009.4
20260506081103 64 208 5.2 15.6 0.00 1.12 1.12 86 1009.4
20260506081003 64 209 5.2 15.6 0.00 1.12 1.12 86 1009.4
20260506080903 64 209 5.2 15.6 0.00 1.12 1.12 86 1009.5
20260506080804 64 208 5.2 15.6 0.00 1.12 1.12 87 1009.6
20260506080703 64 208 5.2 15.6 0.00 1.12 1.12 87 1009.5
20260506080603 64 210 5.2 15.6 0.00 1.12 1.12 87 1009.5
20260506080503 64 213 5.2 15.6 0.00 1.12 1.12 88 1009.6
20260506080403 64 210 5.2 15.6 0.00 1.12 1.12 88 1009.5
20260506080303 64 209 5.2 15.6 0.00 1.12 1.12 88 1009.5
20260506080203 64 211 5.2 13.9 0.00 1.12 1.12 88 1009.4
20260506080103 64 212 5.2 13.9 0.00 1.12 1.12 88 1009.4
20260506073503 64 206 6.1 18.2 0.00 1.12 1.12 87 1009.6
20260506073404 64 205 6.1 18.2 0.00 1.12 1.12 87 1009.6
20260506073303 64 203 6.1 18.2 0.00 1.12 1.12 87 1009.7
20260506073203 64 205 6.1 18.2 0.00 1.12 1.12 87 1009.7
20260506073103 64 206 6.1 17.4 0.00 1.12 1.12 87 1009.7
20260506073003 64 206 6.1 17.4 0.00 1.12 1.12 87 1009.6
20260506072903 64 202 7.0 14.8 0.00 1.12 1.12 88 1009.7
20260506072803 64 203 7.0 14.8 0.00 1.12 1.12 87 1009.6
20260506072703 64 201 7.0 14.8 0.00 1.12 1.12 87 1009.7
20260506072603 64 201 7.0 14.8 0.00 1.12 1.12 87 1009.7
20260506072503 64 202 7.0 14.8 0.00 1.12 1.12 87 1009.7
20260506072403 64 202 7.0 14.8 0.00 1.12 1.12 87 1009.7
20260506072305 64 204 7.0 14.8 0.00 1.12 1.12 87 1009.8
20260506072203 64 200 7.0 14.8 0.00 1.12 1.12 87 1009.7
20260506072103 64 200 7.0 14.8 0.00 1.12 1.12 87 1009.6
20260506072003 64 198 7.0 16.5 0.00 1.12 1.12 87 1009.6
20260506071903 64 201 7.0 17.4 0.00 1.12 1.12 86 1009.6
20260506071703 64 202 7.0 17.4 0.00 1.12 1.12 86 1009.6
20260506071603 64 200 7.0 17.4 0.00 1.12 1.12 86 1009.5
20260506071503 64 200 7.0 17.4 0.00 1.12 1.12 86 1009.6
20260506071403 64 202 6.1 17.4 0.00 1.12 1.12 86 1009.6
20260506071303 64 203 6.1 17.4 0.00 1.12 1.12 85 1009.7
20260506071203 64 207 6.1 17.4 0.00 1.12 1.12 86 1009.7
20260506071118 64 205 6.1 17.4 0.00 1.12 1.12 85 1009.6
20260506071003 64 208 6.1 17.4 0.00 1.12 1.12 86 1009.6
20260506070903 64 208 6.1 15.6 0.00 1.12 1.12 87 1009.6
20260506070803 64 207 6.1 15.6 0.00 1.12 1.12 87 1009.7
20260506070703 64 209 6.1 15.6 0.00 1.12 1.12 88 1009.6
20260506070503 64 210 6.1 13.9 0.00 1.12 1.12 86 1009.6
20260506070403 64 209 6.1 13.9 0.00 1.12 1.12 86 1009.6
20260506070303 64 210 5.2 13.9 0.00 1.13 1.12 86 1009.6
20260506070203 64 210 5.2 13.9 0.00 1.13 1.12 86 1009.6
20260506070103 64 213 5.2 13.9 0.00 1.13 1.12 87 1009.6
20260506062503 64 204 7.0 13.0 0.20 1.15 1.12 86 1009.6
20260506062403 64 205 7.0 13.9 0.22 1.15 1.12 86 1009.7
20260506062305 64 206 7.0 13.9 0.23 1.15 1.12 86 1009.7
20260506062203 64 205 7.0 19.1 0.24 1.15 1.12 86 1009.6
20260506062103 64 208 7.8 19.1 0.26 1.15 1.12 86 1009.6
20260506062003 64 212 7.8 19.1 0.28 1.15 1.12 86 1009.6
20260506061904 64 210 7.8 19.1 0.30 1.15 1.12 86 1009.6
20260506061803 64 210 7.8 19.1 0.31 1.15 1.12 86 1009.6
20260506061703 64 209 7.8 19.1 0.33 1.15 1.12 86 1009.5
20260506061603 64 210 7.8 19.1 0.36 1.15 1.12 86 1009.6
20260506061503 64 212 7.8 19.1 0.39 1.15 1.12 86 1009.6
20260506061403 64 214 7.8 19.1 0.48 1.15 1.12 86 1009.6
20260506061304 64 215 7.8 19.1 0.54 1.15 1.12 86 1009.6
20260506061203 64 216 7.0 15.6 0.58 1.15 1.12 86 1009.5
20260506061103 64 215 7.0 15.6 0.60 1.15 1.12 86 1009.5
20260506061003 64 216 7.0 17.4 0.63 1.15 1.12 86 1009.5
20260506060903 64 217 7.0 17.4 0.65 1.15 1.12 86 1009.5
20260506060803 64 218 7.0 17.4 0.65 1.15 1.12 86 1009.6
20260506060703 64 218 7.0 17.4 0.65 1.15 1.12 87 1009.5
20260506060603 64 219 7.0 17.4 0.65 1.15 1.12 86 1009.6
20260506060503 64 220 7.0 17.4 0.65 1.15 1.12 87 1009.3
20260506060403 64 219 7.0 17.4 0.65 1.15 1.12 87 1009.3
20260506060303 63 216 7.0 17.4 0.65 1.15 1.12 87 1009.3
20260506060203 63 214 7.0 18.2 0.65 1.15 1.12 87 1009.3
20260506051403 63 221 6.1 22.6 0.25 0.84 0.64 86 1009.9
20260506051303 63 225 6.1 10.4 0.20 0.79 0.60 87 1009.6
20260506051203 63 224 6.1 14.8 0.15 0.74 0.55 87 1009.4
20260506051103 63 221 6.1 14.8 0.13 0.73 0.52 87 1009.3
20260506051003 63 222 6.1 14.8 0.10 0.71 0.49 87 1009.3
20260506050903 63 223 6.1 14.8 0.09 0.69 0.47 87 1009.3
20260506050803 63 221 6.1 14.8 0.08 0.69 0.46 87 1009.2
20260506050703 63 221 6.1 14.8 0.08 0.69 0.46 87 1009.2
20260506050603 63 221 5.2 14.8 0.08 0.69 0.46 87 1009.2
20260506050504 63 218 5.2 14.8 0.08 0.70 0.46 87 1009.2
20260506050403 63 217 5.2 14.8 0.09 0.70 0.46 87 1009.2
20260506050303 63 218 5.2 14.8 0.09 0.71 0.46 87 1009.2
20260506050203 63 217 5.2 13.0 0.09 0.71 0.46 87 1009.1
20260506050103 63 219 5.2 13.0 0.09 0.72 0.46 88 1009.1
20260506045104 63 208 7.0 20.9 0.11 0.74 0.46 88 1009.2
20260506045003 63 207 7.0 20.9 0.10 0.74 0.45 88 1009.3
20260506044903 63 208 7.0 20.9 0.09 0.73 0.43 88 1009.4
20260506044803 63 209 7.0 20.9 0.08 0.72 0.43 88 1009.3
20260506044703 63 207 7.0 20.9 0.08 0.72 0.43 88 1009.3
20260506044603 63 205 7.0 20.9 0.09 0.73 0.43 88 1009.2
20260506044503 63 208 7.8 20.9 0.10 0.74 0.43 88 1009.2
20260506044403 63 212 7.8 16.5 0.13 0.73 0.42 88 1009.3
20260506044303 63 212 7.8 16.5 0.16 0.73 0.41 88 1009.3
20260506044203 63 211 7.8 16.5 0.16 0.73 0.40 88 1009.3
20260506044103 63 211 7.8 16.5 0.15 0.72 0.39 88 1009.3
20260506044003 63 209 8.7 16.5 0.15 0.74 0.39 88 1009.3
20260506043903 63 209 8.7 16.5 0.14 0.74 0.39 88 1009.3
20260506043703 63 212 8.7 16.5 0.14 0.75 0.39 88 1009.2
20260506043603 63 215 8.7 15.6 0.14 0.75 0.39 88 1009.1
20260506043503 63 217 7.8 17.4 0.14 0.76 0.39 88 1009.1
20260506043403 63 216 7.8 19.1 0.14 0.76 0.39 89 1009.2
20260506043303 63 218 7.8 19.1 0.14 0.76 0.39 89 1009.2
20260506043203 63 218 7.8 19.1 0.14 0.76 0.39 89 1009.2
20260506043103 63 217 7.0 19.1 0.14 0.76 0.39 88 1009.2
20260506043003 63 219 7.0 19.1 0.14 0.76 0.39 88 1009.1
20260506042903 63 218 7.0 19.1 0.14 0.77 0.39 88 1009.2
20260506042803 63 217 7.0 19.1 0.14 0.77 0.39 88 1009.1
20260506042703 63 217 7.0 19.1 0.14 0.77 0.39 88 1009.1
20260506042603 63 217 7.0 19.1 0.14 0.78 0.39 89 1009.1
20260506042503 63 213 7.0 19.1 0.14 0.78 0.39 89 1009.1
20260506042403 63 210 6.1 13.9 0.14 0.79 0.39 89 1009.2
20260506042305 63 209 6.1 13.9 0.14 0.79 0.39 89 1009.1
20260506042203 63 212 6.1 15.6 0.14 0.80 0.39 89 1009.2
20260506042103 63 214 6.1 15.6 0.14 0.80 0.39 89 1009.2
20260506042003 63 214 6.1 15.6 0.14 0.80 0.39 89 1009.2
20260506041903 63 216 6.1 15.6 0.14 0.81 0.39 89 1009.2
20260506041803 63 217 6.1 15.6 0.14 0.82 0.39 89 1009.1
20260506041703 63 216 5.2 15.6 0.14 0.82 0.39 89 1009.1
20260506041603 63 214 5.2 15.6 0.14 0.83 0.39 89 1009.1
20260506041503 63 215 5.2 15.6 0.15 0.83 0.39 89 1009.2
20260506041403 63 216 5.2 15.6 0.15 0.83 0.39 89 1009.1
20260506041303 63 216 4.3 15.6 0.15 0.83 0.39 89 1009.2
20260506041203 62 214 4.3 14.8 0.15 0.83 0.39 89 1009.1
20260506041103 62 213 4.3 14.8 0.15 0.83 0.39 89 1009.1
20260506041003 62 214 4.3 14.8 0.15 0.83 0.39 89 1009.2
20260506040903 62 212 4.3 14.8 0.15 0.83 0.39 89 1009.2
20260506040803 62 213 3.5 14.8 0.15 0.83 0.39 89 1009.2
20260506040703 62 213 3.5 14.8 0.15 0.83 0.39 89 1009.2
20260506040603 62 214 3.5 14.8 0.15 0.83 0.39 89 1009.2
20260506040503 62 213 3.5 13.9 0.15 0.83 0.39 89 1009.2
20260506040403 62 213 3.5 13.9 0.14 0.83 0.39 89 1009.2
20260506040304 62 210 3.5 10.4 0.14 0.83 0.38 89 1009.2
20260506040203 62 212 2.6 10.4 0.14 0.83 0.38 88 1009.2
20260506040003 62 208 2.6 10.4 0.14 0.83 0.38 88 1009.3
20260506035903 62 206 2.6 10.4 0.14 0.83 0.38 88 1009.3
20260506035803 62 203 2.6 10.4 0.14 0.83 0.38 88 1009.3
20260506035703 62 202 2.6 10.4 0.13 0.82 0.37 88 1009.4
20260506035603 62 201 2.6 10.4 0.12 0.80 0.35 89 1009.4
20260506035503 62 201 2.6 10.4 0.11 0.80 0.35 89 1009.4
20260506035403 62 205 2.6 9.6 0.11 0.80 0.35 89 1009.5
20260506035305 62 209 2.6 9.6 0.11 0.80 0.35 89 1009.5
20260506035203 62 208 2.6 9.6 0.11 0.80 0.35 90 1009.4
20260506035103 62 208 3.5 9.6 0.11 0.80 0.35 90 1009.4
20260506035004 62 212 3.5 9.6 0.11 0.81 0.35 89 1009.3
20260506034903 62 213 3.5 8.7 0.11 0.81 0.35 89 1009.3
20260506034804 62 217 3.5 8.7 0.11 0.81 0.35 89 1009.3
20260506034703 62 218 3.5 9.6 0.11 0.81 0.35 89 1009.3
20260506034603 62 217 3.5 9.6 0.10 0.80 0.34 89 1009.3
20260506034503 62 215 3.5 9.6 0.09 0.79 0.33 88 1009.4
20260506034403 62 212 3.5 9.6 0.05 0.76 0.28 88 1009.5
20260506034303 62 210 3.5 9.6 0.02 0.72 0.26 88 1009.6
20260506034203 62 210 3.5 10.4 0.01 0.72 0.24 88 1009.5
20260506034103 62 212 3.5 10.4 0.01 0.72 0.24 88 1009.4
20260506034003 62 209 4.3 10.4 0.01 0.73 0.24 88 1009.4
20260506033903 62 208 4.3 10.4 0.01 0.73 0.24 88 1009.4
20260506033803 62 206 4.3 10.4 0.01 0.73 0.24 88 1009.3
20260506033703 62 204 4.3 10.4 0.01 0.73 0.24 88 1009.4
20260506033603 62 202 4.3 13.0 0.01 0.73 0.24 87 1009.5
20260506033503 62 204 5.2 13.9 0.01 0.73 0.24 87 1009.5
20260506033403 62 204 5.2 13.9 0.01 0.73 0.24 87 1009.6
20260506033303 62 206 5.2 13.9 0.01 0.73 0.24 87 1009.6
20260506033203 62 205 5.2 13.9 0.01 0.73 0.24 87 1009.6
20260506033103 63 206 6.1 13.9 0.01 0.73 0.24 87 1009.7
20260506033004 62 207 6.1 13.9 0.01 0.73 0.24 87 1009.6
20260506032903 63 210 6.1 13.9 0.01 0.73 0.24 87 1009.6
20260506032803 63 208 7.0 15.6 0.01 0.73 0.24 87 1009.5
20260506032703 63 207 7.0 15.6 0.01 0.73 0.24 87 1009.4
20260506032603 63 212 7.0 15.6 0.01 0.73 0.24 87 1009.5
20260506032503 63 209 7.0 15.6 0.01 0.73 0.24 88 1009.4
20260506032403 63 208 7.0 15.6 0.01 0.73 0.24 88 1009.4
20260506032203 63 206 7.0 15.6 0.01 0.73 0.24 87 1009.5
20260506032103 63 204 7.0 15.6 0.01 0.73 0.24 87 1009.6
20260506032003 63 203 7.0 15.6 0.01 0.73 0.24 88 1009.6
20260506031903 63 204 7.0 15.6 0.01 0.73 0.24 88 1009.6
20260506031803 63 205 7.0 15.6 0.01 0.73 0.24 88 1009.6
20260506031703 63 206 7.0 15.6 0.01 0.73 0.24 88 1009.7
20260506031603 63 204 6.1 15.6 0.01 0.73 0.24 88 1009.7
20260506031503 63 203 7.0 15.6 0.00 0.72 0.24 88 1009.8
20260506031403 63 203 7.0 15.6 0.00 0.72 0.24 88 1009.8
20260506031303 63 206 6.1 15.6 0.00 0.72 0.24 89 1009.8
20260506031203 63 207 6.1 15.6 0.01 0.72 0.24 89 1009.8
20260506031103 63 207 6.1 15.6 0.01 0.72 0.24 89 1009.7
20260506031003 63 208 6.1 13.9 0.01 0.72 0.24 88 1009.8
20260506030903 63 204 6.1 13.9 0.01 0.72 0.24 88 1009.7
20260506030803 63 204 6.1 13.9 0.01 0.72 0.24 88 1009.7
20260506030703 63 203 6.1 13.9 0.01 0.72 0.24 88 1009.7
20260506030603 63 201 6.1 14.8 0.01 0.72 0.24 88 1009.7
20260506030503 63 204 6.1 14.8 0.01 0.72 0.24 88 1009.7
20260506030403 63 205 6.1 14.8 0.01 0.72 0.24 88 1009.8
20260506030303 63 204 6.1 14.8 0.01 0.72 0.24 88 1009.7
20260506030203 63 203 6.1 14.8 0.01 0.72 0.24 88 1009.7
20260506030103 62 205 6.1 14.8 0.01 0.72 0.24 88 1009.8
20260506030004 63 204 5.2 14.8 0.01 0.72 0.24 88 1009.8
20260506025903 63 203 5.2 14.8 0.01 0.72 0.24 88 1009.8
20260506025805 62 202 5.2 14.8 0.01 0.72 0.24 88 1009.9
20260506025703 62 204 5.2 14.8 0.02 0.72 0.24 88 1010.0
20260506025603 62 206 5.2 13.9 0.02 0.73 0.24 88 1009.7
20260506025503 62 204 4.3 12.2 0.02 0.73 0.24 88 1009.8
20260506025403 62 206 4.3 12.2 0.02 0.73 0.24 88 1009.7
20260506025305 62 206 4.3 13.0 0.02 0.73 0.24 88 1009.6
20260506025203 62 207 3.5 13.0 0.02 0.73 0.24 88 1009.6
20260506025103 62 206 3.5 13.0 0.02 0.73 0.24 88 1009.5
20260506025004 62 206 2.6 13.0 0.02 0.73 0.24 88 1009.6
20260506024903 62 207 2.6 13.0 0.03 0.73 0.24 88 1009.5
20260506024803 62 208 2.6 13.0 0.04 0.73 0.24 88 1009.4
20260506024703 62 208 1.7 13.0 0.06 0.73 0.24 88 1009.7
20260506024603 62 208 1.7 13.0 0.07 0.74 0.24 88 1009.6
20260506024503 62 209 1.7 13.0 0.07 0.74 0.24 88 1009.5
20260506024403 62 206 0.9 13.0 0.07 0.74 0.24 88 1009.6
20260506024303 61 205 0.9 8.7 0.07 0.74 0.24 88 1009.4
20260506024203 61 202 0.9 8.7 0.07 0.74 0.24 88 1009.6
20260506024103 61 198 0.9 8.7 0.07 0.75 0.24 88 1009.5
20260506024003 61 201 0.9 8.7 0.08 0.75 0.24 88 1009.6
20260506023903 61 205 0.9 5.2 0.08 0.75 0.24 88 1009.5
20260506023804 61 208 0.9 4.3 0.09 0.76 0.24 88 1009.5
20260506023703 61 217 0.9 4.3 0.10 0.76 0.24 88 1009.4
20260506023603 61 229 0.9 4.3 0.11 0.76 0.24 88 1009.4
20260506023503 61 228 0.9 7.0 0.12 0.76 0.24 89 1009.5
20260506023403 61 226 0.9 7.0 0.12 0.76 0.24 89 1009.4
20260506023303 61 236 0.9 7.0 0.12 0.76 0.24 88 1009.4
20260506023203 61 238 0.9 7.0 0.12 0.76 0.24 88 1009.4
20260506023103 61 238 0.9 7.0 0.12 0.76 0.24 88 1009.3
20260506023003 60 244 1.7 7.0 0.12 0.77 0.24 88 1009.3
20260506022903 60 275 1.7 7.0 0.12 0.77 0.24 89 1009.3
20260506022803 60 310 1.7 7.0 0.12 0.77 0.24 89 1009.2
20260506022703 60 323 1.7 7.0 0.12 0.78 0.24 89 1009.4
20260506022603 60 316 1.7 7.0 0.13 0.78 0.24 89 1009.4
20260506022503 60 330 1.7 7.0 0.14 0.78 0.24 89 1009.5
20260506022404 60 335 1.7 7.0 0.16 0.78 0.24 89 1009.5
20260506022305 60 336 1.7 7.0 0.17 0.79 0.24 89 1009.6
20260506022203 60 336 1.7 7.0 0.17 0.79 0.24 89 1009.6
20260506022103 60 336 1.7 7.0 0.17 0.80 0.24 89 1009.5
20260506022003 59 334 0.9 7.0 0.18 0.80 0.24 89 1009.6
20260506021903 59 334 0.9 7.8 0.19 0.80 0.24 89 1009.6
20260506021803 59 335 0.9 7.8 0.19 0.80 0.24 90 1009.6
20260506021703 59 336 0.9 7.8 0.19 0.80 0.24 89 1009.6
20260506021603 59 337 0.9 7.8 0.19 0.80 0.24 89 1009.5
20260506021503 59 339 0.9 7.8 0.19 0.80 0.24 90 1009.6
20260506021403 59 339 0.0 7.8 0.19 0.80 0.24 90 1009.6
20260506021303 59 339 0.0 7.8 0.19 0.80 0.24 90 1009.6
20260506021103 59 338 0.0 7.8 0.18 0.80 0.23 89 1009.6
20260506021003 59 337 0.0 7.8 0.18 0.80 0.23 90 1009.7
20260506020903 59 325 0.0 2.6 0.18 0.81 0.23 90 1009.8
20260506020803 59 288 0.0 3.5 0.18 0.81 0.23 91 1009.8
20260506020703 59 288 0.0 3.5 0.18 0.81 0.23 90 1009.8
20260506020603 59 288 0.9 3.5 0.18 0.81 0.23 90 1009.9
20260506020503 59 288 0.9 3.5 0.18 0.82 0.23 90 1009.9
20260506020404 59 288 0.9 3.5 0.18 0.82 0.23 91 1009.9
20260506020303 59 288 0.9 3.5 0.18 0.82 0.23 91 1009.8
20260506020203 59 288 0.9 3.5 0.18 0.83 0.23 91 1009.9
20260506020103 59 288 0.9 3.5 0.18 0.83 0.23 91 1010.0
20260506020003 59 288 0.9 3.5 0.18 0.83 0.23 90 1010.0
20260506015903 59 287 0.9 3.5 0.18 0.83 0.23 90 1010.0
20260506015803 59 287 0.9 3.5 0.18 0.83 0.23 91 1010.0
20260506015703 59 287 0.9 2.6 0.17 0.83 0.22 91 1010.1
20260506015603 59 287 0.9 2.6 0.17 0.83 0.22 91 1010.1
20260506015503 59 287 0.9 2.6 0.17 0.83 0.22 91 1010.1
20260506015403 59 287 0.9 2.6 0.17 0.84 0.22 91 1010.1
20260506015305 59 287 0.9 2.6 0.17 0.84 0.22 91 1010.1
20260506015203 59 287 0.9 2.6 0.17 0.84 0.22 91 1010.2
20260506015103 59 286 0.9 2.6 0.17 0.83 0.21 91 1010.2
20260506015003 59 281 0.9 1.7 0.17 0.84 0.21 90 1010.3
20260506014903 59 316 0.9 3.5 0.16 0.83 0.20 90 1010.4
20260506014803 59 303 0.9 4.3 0.15 0.83 0.20 91 1010.4
20260506014703 59 265 0.9 4.3 0.13 0.81 0.18 91 1010.4
20260506014603 59 255 0.9 4.3 0.12 0.80 0.17 91 1010.3
20260506014503 59 250 0.9 4.3 0.12 0.80 0.17 91 1010.3
20260506014403 59 249 0.9 4.3 0.12 0.80 0.17 91 1010.2
20260506014303 59 249 0.9 4.3 0.12 0.81 0.17 91 1010.2
20260506014203 59 249 0.9 4.3 0.12 0.81 0.17 91 1010.2
20260506014103 59 249 0.0 4.3 0.12 0.81 0.17 91 1010.2
20260506014003 59 249 0.0 4.3 0.11 0.80 0.16 91 1010.1
20260506013903 60 243 0.0 4.3 0.11 0.80 0.16 91 1010.0
20260506013803 60 232 0.0 4.3 0.10 0.80 0.15 91 1010.2
20260506013703 60 232 0.0 3.5 0.09 0.79 0.13 91 1010.2
20260506013603 60 0 0.0 2.6 0.08 0.78 0.13 91 1010.3
20260506013503 60 0 0.0 2.6 0.07 0.77 0.12 91 1010.4
20260506013403 60 0 0.0 0.0 0.07 0.77 0.12 91 1010.4
20260506013303 60 0 0.0 0.0 0.07 0.77 0.12 91 1010.4
20260506013203 60 0 0.0 1.7 0.07 0.77 0.12 91 1010.4
20260506013103 60 0 0.0 1.7 0.07 0.77 0.12 91 1010.4
20260506013003 60 0 0.0 1.7 0.07 0.78 0.12 91 1010.4
20260506012903 60 0 0.0 1.7 0.07 0.78 0.12 91 1010.5
20260506012803 60 0 0.0 1.7 0.07 0.78 0.12 91 1010.5
20260506012703 60 0 0.0 1.7 0.07 0.78 0.12 91 1010.5
20260506012603 60 0 0.0 1.7 0.06 0.77 0.11 91 1010.5
20260506012503 60 0 0.0 1.7 0.05 0.76 0.09 91 1010.5
20260506012403 60 0 0.0 1.7 0.03 0.75 0.08 91 1010.7
20260506012307 60 0 0.0 1.7 0.02 0.74 0.07 91 1010.8
20260506012203 60 0 0.0 0.9 0.02 0.74 0.06 91 1010.8
20260506012103 60 0 0.0 0.0 0.02 0.74 0.06 91 1010.7
20260506012003 60 0 0.0 0.0 0.01 0.73 0.06 91 1010.7
20260506011903 60 0 0.0 0.0 0.01 0.72 0.06 91 1010.6
20260506011803 60 0 0.0 0.0 0.01 0.72 0.05 91 1010.4
20260506011703 60 0 0.0 0.0 0.01 0.73 0.05 91 1010.4
20260506011603 60 0 0.0 0.0 0.01 0.73 0.05 91 1010.4
20260506011504 60 0 0.0 0.0 0.01 0.73 0.05 91 1010.5
20260506011403 60 0 0.0 0.0 0.01 0.73 0.05 91 1010.5
20260506011303 60 0 0.0 0.0 0.01 0.73 0.05 91 1010.5
20260506011203 60 0 0.0 0.0 0.01 0.73 0.05 91 1010.5
20260506011103 60 0 0.0 0.0 0.01 0.73 0.05 91 1010.5
20260506011003 60 0 0.0 0.0 0.01 0.73 0.05 91 1010.4
20260506010903 60 0 0.0 0.0 0.01 0.73 0.05 91 1010.5
20260506010803 60 0 0.0 0.0 0.01 0.74 0.05 91 1010.5
20260506010703 60 0 0.0 0.0 0.01 0.74 0.05 91 1010.5
20260506010603 60 0 0.0 0.0 0.01 0.74 0.05 91 1010.6
20260506010503 60 0 0.0 0.0 0.01 0.74 0.05 91 1010.5
20260506010403 60 0 0.0 0.0 0.01 0.74 0.05 91 1010.6
20260506010303 60 0 0.0 0.0 0.01 0.74 0.05 91 1010.6
20260506010203 60 0 0.0 0.0 0.01 0.74 0.05 91 1010.5
20260506010103 60 0 0.0 0.0 0.01 0.74 0.05 91 1010.5
20260506010003 60 0 0.0 0.0 0.01 0.74 0.05 91 1010.5
20260506005903 60 0 0.0 0.0 0.01 0.75 0.05 91 1010.5
20260506005803 60 0 0.0 0.0 0.01 0.75 0.05 91 1010.5
20260506005703 60 0 0.0 0.0 0.01 0.75 0.05 91 1010.5
20260506005603 60 0 0.0 0.0 0.01 0.75 0.05 91 1010.5
20260506005503 60 0 0.0 0.0 0.01 0.76 0.05 91 1010.6
20260506005403 60 0 0.0 0.0 0.02 0.76 0.05 91 1010.5
20260506005305 60 0 0.0 0.0 0.02 0.76 0.05 91 1010.5
20260506005203 60 0 0.0 0.0 0.02 0.76 0.05 91 1010.5
20260506005103 60 0 0.0 0.0 0.02 0.76 0.05 90 1010.5
20260506005003 61 0 0.0 0.0 0.02 0.76 0.05 90 1010.5
20260506004903 61 0 0.0 0.0 0.02 0.76 0.05 90 1010.6
20260506004803 61 0 0.0 0.0 0.02 0.76 0.05 90 1010.6
20260506004703 61 0 0.0 0.0 0.02 0.76 0.05 90 1010.6
20260506004604 61 0 0.0 0.0 0.02 0.76 0.05 90 1010.6
20260506004503 61 0 0.0 0.0 0.02 0.76 0.05 91 1010.6
20260506004403 61 0 0.0 0.0 0.02 0.76 0.05 91 1010.6
20260506004303 61 0 0.0 0.0 0.02 0.76 0.05 90 1010.7
20260506004203 61 0 0.0 0.0 0.02 0.76 0.05 90 1010.8
20260506004103 61 0 0.0 0.0 0.02 0.76 0.05 90 1010.8
20260506004003 61 0 0.0 0.0 0.02 0.76 0.05 90 1010.8
20260506003903 61 0 0.0 0.0 0.02 0.76 0.05 90 1010.9
20260506003803 61 0 0.0 0.0 0.02 0.76 0.05 90 1010.9
20260506003703 61 0 0.0 0.0 0.02 0.76 0.05 90 1011.0
20260506003603 61 0 0.0 0.0 0.03 0.76 0.05 90 1011.0
20260506003503 61 0 0.0 0.0 0.03 0.76 0.05 90 1011.0
20260506003403 61 0 0.0 0.0 0.03 0.76 0.05 90 1011.0
20260506003303 61 0 0.0 0.0 0.03 0.76 0.05 90 1011.0
20260506003203 61 0 0.0 0.0 0.03 0.76 0.05 90 1011.0
20260506003103 61 0 0.0 0.0 0.03 0.76 0.05 90 1011.0
20260506003003 61 0 0.0 0.0 0.03 0.76 0.05 90 1011.0
20260506002903 61 0 0.0 0.0 0.03 0.76 0.05 90 1011.0
20260506002803 61 0 0.0 0.0 0.03 0.76 0.05 90 1010.9
20260506002704 61 0 0.0 0.0 0.03 0.76 0.05 90 1010.9
20260506002603 61 0 0.0 0.0 0.03 0.76 0.05 90 1010.8
20260506002503 61 0 0.0 0.0 0.03 0.76 0.05 90 1010.9
20260506002403 61 0 0.0 0.0 0.03 0.76 0.05 90 1010.9
20260506002305 61 0 0.9 0.0 0.03 0.76 0.05 89 1010.9
20260506002203 62 232 0.9 1.7 0.04 0.76 0.05 89 1010.9
20260506002103 62 232 0.9 3.5 0.04 0.76 0.05 89 1011.0
20260506002003 62 230 0.9 3.5 0.04 0.76 0.05 89 1011.0
20260506001903 62 230 0.9 3.5 0.03 0.76 0.04 89 1011.0
20260506001803 62 226 0.9 3.5 0.03 0.76 0.04 89 1010.9
20260506001703 62 221 0.9 3.5 0.03 0.76 0.04 89 1010.9
20260506001603 62 220 0.9 3.5 0.03 0.76 0.04 89 1010.9
20260506001503 62 217 0.9 3.5 0.03 0.76 0.04 89 1010.9
20260506001403 62 217 0.9 3.5 0.03 0.76 0.04 89 1010.9
20260506001303 62 217 0.9 3.5 0.03 0.76 0.04 89 1010.9
20260506001203 62 215 1.7 3.5 0.04 0.76 0.04 89 1011.0
20260506001103 62 210 1.7 2.6 0.04 0.76 0.04 89 1011.0
20260506001003 62 206 1.7 2.6 0.04 0.76 0.04 89 1011.0
20260506000903 62 206 2.6 2.6 0.04 0.76 0.04 89 1011.1
20260506000803 62 206 2.6 3.5 0.04 0.76 0.04 89 1011.0
20260506000703 62 210 3.5 6.1 0.04 0.76 0.04 89 1011.0
20260506000603 62 215 3.5 7.0 0.04 0.76 0.04 89 1011.0
20260506000503 62 216 3.5 7.0 0.04 0.76 0.04 89 1011.0
20260506000403 62 217 4.3 7.0 0.04 0.76 0.04 89 1010.9
20260506000303 62 215 4.3 7.0 0.04 0.76 0.04 89 1010.9
20260506000204 62 216 4.3 7.0 0.04 0.76 0.04 89 1010.9
20260506000103 62 218 5.2 7.8 0.04 0.76 0.04 89 1010.9
20260506000004 62 220 5.2 7.8 0.04 0.76 0.04 89 1011.0
20260505235903 62 222 5.2 13.0 0.04 0.76 0.04 89 1011.1
20260505235803 62 222 5.2 13.0 0.04 0.76 0.04 89 1011.1
20260505235704 62 221 5.2 13.0 0.04 0.76 0.04 90 1011.1
20260505235603 62 221 5.2 13.0 0.04 0.76 0.04 90 1011.2
20260505235503 62 221 5.2 13.0 0.04 0.76 0.04 90 1011.3
20260505235404 62 222 5.2 13.0 0.03 0.75 0.03 90 1011.3
20260505235305 62 223 6.1 13.0 0.03 0.75 0.03 90 1011.3
20260505235203 62 224 6.1 13.0 0.03 0.75 0.03 90 1011.3
20260505235103 62 224 6.1 13.0 0.03 0.75 0.03 90 1011.3
20260505235003 62 222 5.2 13.0 0.03 0.75 0.03 90 1011.3
20260505234903 62 222 5.2 12.2 0.02 0.74 0.02 90 1011.3
20260505234803 62 221 5.2 12.2 0.02 0.74 0.02 90 1011.4
20260505234703 62 221 5.2 12.2 0.02 0.74 0.02 90 1011.4
20260505234603 62 221 5.2 12.2 0.02 0.74 0.02 90 1011.4
20260505234503 62 220 5.2 12.2 0.02 0.74 0.02 90 1011.4
20260505234403 62 220 4.3 12.2 0.02 0.74 0.02 90 1011.3
20260505234303 62 218 4.3 12.2 0.02 0.74 0.02 90 1011.4
20260505234203 62 215 3.5 12.2 0.02 0.74 0.02 90 1011.3
20260505234103 62 213 2.6 12.2 0.02 0.74 0.02 90 1011.3
20260505234003 62 212 2.6 12.2 0.02 0.74 0.02 90 1011.4
20260505233903 62 211 1.7 12.2 0.02 0.74 0.02 90 1011.3
20260505233803 62 211 1.7 12.2 0.02 0.74 0.02 90 1011.3
20260505233703 62 210 0.9 12.2 0.02 0.74 0.02 91 1011.3
20260505233603 62 209 0.9 12.2 0.02 0.73 0.02 91 1011.3
20260505233503 62 208 0.9 12.2 0.02 0.73 0.02 91 1011.4
20260505233403 63 206 0.0 11.3 0.02 0.73 0.02 91 1011.3
20260505233303 62 206 0.0 11.3 0.02 0.73 0.02 92 1011.4
20260505233203 62 211 0.0 11.3 0.02 0.73 0.02 92 1011.3
20260505233103 62 0 0.0 7.8 0.02 0.73 0.02 92 1011.3
20260505233003 62 0 0.0 7.8 0.02 0.73 0.02 92 1011.3
20260505232903 62 0 0.0 7.8 0.02 0.73 0.02 92 1011.3
20260505232803 62 0 0.0 7.8 0.02 0.73 0.02 92 1011.3
20260505232703 61 0 0.0 7.8 0.02 0.73 0.02 92 1011.3
20260505232603 61 0 0.0 7.8 0.02 0.73 0.02 91 1011.3
20260505232503 61 0 0.0 7.8 0.02 0.73 0.02 91 1011.3
20260505232403 61 0 0.0 0.0 0.02 0.73 0.02 90 1011.4
20260505232305 61 0 0.0 0.0 0.02 0.73 0.02 90 1011.3
20260505232203 61 0 0.0 0.0 0.01 0.72 0.01 90 1011.5
20260505232103 61 0 0.0 0.0 0.01 0.72 0.01 90 1011.4
20260505232003 61 0 0.0 0.0 0.01 0.72 0.01 91 1011.4
20260505231903 60 0 0.0 0.0 0.01 0.72 0.01 90 1011.4
20260505231803 60 0 0.0 0.0 0.01 0.72 0.01 90 1011.3
20260505231703 60 0 0.0 0.0 0.01 0.72 0.01 90 1011.4
20260505231603 60 0 0.0 0.0 0.01 0.72 0.01 90 1011.4
20260505231503 60 0 0.0 0.0 0.01 0.72 0.01 90 1011.5
20260505231403 60 0 0.0 0.0 0.01 0.72 0.01 90 1011.6
20260505231003 60 0 0.0 0.0 0.00 0.72 0.00 89 1011.7
20260505230903 60 0 0.0 0.0 0.00 0.72 0.00 89 1011.8
20260505230803 60 0 0.0 0.0 0.00 0.72 0.00 89 1011.8
20260505230703 60 0 0.0 0.0 0.00 0.72 0.00 89 1011.8
20260505230604 60 0 0.0 0.0 0.00 0.72 0.00 89 1011.8
20260505230503 60 0 0.0 0.0 0.00 0.72 0.00 89 1011.8
20260505230403 60 0 0.0 0.0 0.00 0.72 0.00 89 1011.9
20260505230303 60 0 0.0 0.0 0.00 0.72 0.00 89 1011.9
20260505230203 60 0 0.0 0.0 0.00 0.72 0.00 89 1011.9
20260505230108 60 0 0.0 0.0 0.00 0.72 0.00 89 1011.9
20260505230003 60 0 0.0 0.0 0.00 0.72 0.00 89 1011.9
20260505225903 60 0 0.0 0.0 0.00 0.72 0.00 89 1011.9
20260505225803 60 0 0.0 0.0 0.00 0.72 0.00 89 1011.9
20260505225704 60 0 0.0 0.0 0.00 0.72 0.00 89 1011.9
20260505225603 60 0 0.0 0.0 0.00 0.72 0.00 89 1012.0
20260505225504 60 0 0.0 0.0 0.00 0.72 0.00 89 1012.0
20260505225403 60 0 0.0 0.0 0.00 0.72 0.00 89 1012.0
20260505225305 60 0 0.0 0.0 0.00 0.72 0.00 88 1012.0
20260505225203 60 0 0.0 0.0 0.00 0.72 0.00 88 1011.9
20260505225103 60 0 0.0 0.0 0.00 0.72 0.00 88 1011.9
20260505225003 60 0 0.0 0.0 0.00 0.72 0.00 88 1011.9
20260505224903 60 0 0.0 0.0 0.00 0.72 0.00 88 1012.0
20260505224803 60 0 0.0 0.0 0.00 0.72 0.00 88 1012.1
20260505224703 60 0 0.0 0.0 0.00 0.72 0.00 89 1012.1
20260505224603 60 0 0.0 0.0 0.00 0.72 0.00 88 1012.2
20260505224503 60 0 0.0 0.0 0.00 0.72 0.00 88 1012.2
20260505224403 60 0 0.0 0.0 0.00 0.72 0.00 89 1012.2
20260505224303 60 0 0.0 0.0 0.00 0.72 0.00 89 1012.2
20260505224203 60 0 0.0 0.0 0.00 0.72 0.00 89 1012.2
20260505224103 60 0 0.0 0.0 0.00 0.72 0.00 89 1012.2
20260505224003 60 0 0.0 0.0 0.00 0.72 0.00 89 1012.3
20260505223903 60 0 0.0 0.0 0.00 0.72 0.00 89 1012.3
20260505223803 60 0 0.0 0.0 0.00 0.72 0.00 89 1012.3
20260505223703 60 0 0.0 0.0 0.00 0.72 0.00 89 1012.3
20260505223603 60 0 0.0 0.0 0.00 0.72 0.00 89 1012.4
20260505223503 60 0 0.0 0.0 0.00 0.72 0.00 89 1012.4
20260505223403 60 0 0.0 0.0 0.00 0.72 0.00 89 1012.4
20260505223303 60 0 0.0 0.0 0.00 0.72 0.00 89 1012.4
20260505223203 60 0 0.0 0.0 0.00 0.72 0.00 89 1012.4
20260505223103 60 0 0.0 0.0 0.00 0.72 0.00 89 1012.4
20260505223003 60 0 0.0 0.0 0.00 0.72 0.00 89 1012.3
20260505222904 60 0 0.0 0.0 0.00 0.72 0.00 89 1012.4
20260505222803 59 0 0.0 0.0 0.00 0.72 0.00 89 1012.4
20260505222703 59 0 0.0 0.0 0.00 0.72 0.00 89 1012.4
20260505222603 59 0 0.0 0.0 0.00 0.72 0.00 89 1012.4
20260505222506 59 0 0.0 0.0 0.00 0.72 0.00 89 1012.5
20260505222403 59 0 0.0 0.0 0.00 0.72 0.00 89 1012.5
20260505222305 59 0 0.0 0.0 0.00 0.72 0.00 89 1012.5
20260505222203 59 0 0.0 0.0 0.00 0.72 0.00 89 1012.5
20260505222103 59 0 0.0 0.0 0.00 0.72 0.00 89 1012.5
20260505222003 59 0 0.0 0.0 0.00 0.72 0.00 89 1012.5
20260505221903 59 0 0.0 0.0 0.00 0.72 0.00 89 1012.5
20260505221803 59 0 0.0 0.0 0.00 0.72 0.00 89 1012.5
20260505221703 59 0 0.0 0.0 0.00 0.72 0.00 89 1012.5
20260505221603 59 0 0.0 0.0 0.00 0.72 0.00 89 1012.5
20260505221504 59 0 0.0 0.0 0.00 0.72 0.00 89 1012.5
20260505221403 59 0 0.0 0.0 0.00 0.72 0.00 89 1012.6
20260505221303 59 0 0.0 0.0 0.00 0.72 0.00 89 1012.6
20260505221203 59 0 0.0 0.0 0.00 0.72 0.00 89 1012.6
20260505221103 59 0 0.0 0.0 0.00 0.72 0.00 89 1012.5
20260505221003 59 0 0.0 0.0 0.00 0.72 0.00 89 1012.5
20260505220903 59 0 0.0 0.0 0.00 0.72 0.00 89 1012.5
20260505220803 59 0 0.0 0.0 0.00 0.72 0.00 89 1012.5
20260505220703 59 0 0.0 0.0 0.00 0.72 0.00 89 1012.5
20260505220603 59 0 0.0 0.0 0.00 0.72 0.00 89 1012.5
20260505220503 59 0 0.0 0.0 0.00 0.72 0.00 89 1012.5
20260505220403 59 0 0.0 0.0 0.00 0.72 0.00 89 1012.5
20260505220303 59 0 0.0 0.0 0.00 0.72 0.00 89 1012.5
20260505220203 59 0 0.0 0.0 0.00 0.72 0.00 89 1012.4
20260505220103 59 0 0.0 0.0 0.00 0.72 0.00 89 1012.5
20260505220021 59 0 0.0 0.0 0.00 0.72 0.00 89 1012.4
20260505215903 59 0 0.0 0.0 0.00 0.72 0.72 89 1012.4
20260505215803 59 0 0.0 0.0 0.00 0.72 0.72 89 1012.4
20260505215703 59 0 0.0 0.0 0.00 0.72 0.72 89 1012.4
20260505215603 59 0 0.0 0.0 0.00 0.72 0.72 89 1012.4
20260505215503 58 0 0.0 0.0 0.00 0.72 0.72 89 1012.4
20260505215403 58 0 0.0 0.0 0.00 0.72 0.72 89 1012.5
20260505215305 58 0 0.0 0.0 0.00 0.72 0.72 89 1012.4
20260505215203 58 0 0.0 0.0 0.00 0.72 0.72 89 1012.5
20260505215103 58 0 0.0 0.0 0.00 0.72 0.72 89 1012.5
20260505215003 58 0 0.0 0.0 0.00 0.72 0.72 89 1012.6
20260505214903 58 0 0.0 0.0 0.00 0.72 0.72 89 1012.6
20260505214803 58 0 0.0 0.0 0.00 0.72 0.72 89 1012.5
20260505214703 58 0 0.0 0.0 0.00 0.72 0.72 89 1012.5
20260505214603 58 0 0.0 0.0 0.00 0.72 0.72 89 1012.6
20260505214503 58 0 0.0 0.0 0.00 0.72 0.72 89 1012.6
20260505214403 58 0 0.0 0.0 0.00 0.72 0.72 89 1012.6
20260505214303 58 0 0.0 0.0 0.00 0.72 0.72 89 1012.6
20260505214203 58 0 0.0 0.0 0.00 0.72 0.72 89 1012.6
20260505214103 58 0 0.0 0.0 0.00 0.72 0.72 89 1012.6
20260505214003 58 0 0.0 0.0 0.00 0.72 0.72 89 1012.5
20260505213904 58 0 0.0 0.0 0.00 0.72 0.72 89 1012.6
20260505213803 58 0 0.0 0.0 0.00 0.72 0.72 89 1012.7
20260505213703 58 0 0.0 0.0 0.00 0.72 0.72 89 1012.7
20260505213603 58 0 0.0 0.0 0.00 0.72 0.72 89 1012.7
20260505213503 58 0 0.0 0.0 0.00 0.72 0.72 89 1012.7
20260505213403 58 0 0.0 0.0 0.00 0.72 0.72 89 1012.8
20260505213303 58 0 0.0 0.0 0.00 0.72 0.72 89 1012.8
20260505213203 58 0 0.0 0.0 0.00 0.72 0.72 89 1012.8
20260505213103 58 0 0.0 0.0 0.00 0.72 0.72 89 1012.8
20260505213003 58 0 0.0 0.0 0.00 0.72 0.72 89 1012.8
20260505212903 58 0 0.0 0.0 0.00 0.72 0.72 89 1012.8
20260505212803 58 0 0.0 0.0 0.00 0.72 0.72 89 1012.9
20260505212703 58 0 0.0 0.0 0.00 0.72 0.72 89 1012.8
20260505212603 58 0 0.0 0.0 0.00 0.72 0.72 89 1012.9
20260505212503 58 0 0.0 0.0 0.00 0.72 0.72 89 1012.8
20260505212403 59 0 0.0 0.0 0.00 0.72 0.72 89 1012.8
20260505212305 59 0 0.0 0.0 0.00 0.72 0.72 89 1012.8
20260505212203 59 0 0.0 0.0 0.00 0.72 0.72 89 1012.9
20260505212103 59 0 0.0 0.0 0.00 0.72 0.72 89 1012.9
20260505212003 59 0 0.0 0.0 0.00 0.72 0.72 89 1012.9
20260505211903 59 0 0.0 0.0 0.00 0.72 0.72 89 1012.8
20260505211803 59 0 0.0 0.0 0.00 0.72 0.72 89 1012.8
20260505211703 59 0 0.0 0.0 0.00 0.72 0.72 89 1012.8
20260505211603 59 0 0.0 0.0 0.00 0.72 0.72 89 1012.8
20260505211504 59 0 0.0 0.0 0.00 0.72 0.72 89 1012.8
20260505211403 59 0 0.0 0.0 0.00 0.72 0.72 89 1012.8
20260505211303 59 0 0.0 0.0 0.00 0.72 0.72 89 1012.8
20260505211203 59 0 0.0 0.0 0.00 0.72 0.72 89 1012.8
20260505211103 59 0 0.0 0.0 0.00 0.72 0.72 89 1012.9
20260505211003 59 0 0.0 0.0 0.00 0.72 0.72 89 1012.8
20260505210903 59 0 0.0 0.0 0.00 0.72 0.72 89 1012.8
20260505210803 59 0 0.0 0.0 0.00 0.72 0.72 89 1012.8
20260505210703 59 0 0.0 0.0 0.00 0.72 0.72 89 1012.8
20260505210603 59 0 0.0 0.0 0.00 0.72 0.72 89 1012.8
20260505210503 59 0 0.0 0.0 0.00 0.72 0.72 89 1012.7
20260505210403 59 0 0.0 0.0 0.00 0.72 0.72 89 1012.8
20260505210303 59 0 0.0 0.0 0.00 0.72 0.72 89 1012.8
20260505210203 58 0 0.0 0.0 0.00 0.72 0.72 89 1012.8
20260505210103 58 0 0.0 0.0 0.00 0.72 0.72 89 1012.8
20260505210003 58 0 0.0 0.0 0.00 0.72 0.72 89 1012.9
20260505205903 58 0 0.0 0.0 0.00 0.72 0.72 89 1012.9
20260505205803 58 0 0.0 0.0 0.00 0.72 0.72 89 1012.9
20260505205703 58 0 0.0 0.0 0.00 0.72 0.72 89 1012.9
20260505205603 58 0 0.0 0.0 0.00 0.72 0.72 89 1012.9
20260505205503 58 0 0.0 0.0 0.00 0.72 0.72 89 1012.9
20260505205403 58 0 0.0 0.0 0.00 0.72 0.72 89 1013.0
20260505205305 58 0 0.0 0.0 0.00 0.72 0.72 89 1013.0
20260505205203 58 0 0.0 0.0 0.00 0.72 0.72 89 1013.0
20260505205103 58 0 0.0 0.0 0.00 0.72 0.72 89 1013.0
20260505205003 58 0 0.0 0.0 0.00 0.72 0.72 89 1013.0
20260505204903 58 0 0.0 0.0 0.00 0.72 0.72 89 1013.0
20260505204803 58 0 0.0 0.0 0.00 0.72 0.72 89 1013.0
20260505204703 58 0 0.0 0.0 0.00 0.72 0.72 89 1013.0
20260505204603 58 0 0.0 0.0 0.00 0.72 0.72 89 1013.1
20260505204503 58 0 0.0 0.0 0.00 0.72 0.72 88 1013.1
20260505204403 58 0 0.0 0.0 0.00 0.72 0.72 88 1013.2
20260505204303 58 0 0.0 0.0 0.00 0.72 0.72 89 1013.2
20260505204203 58 0 0.0 0.0 0.00 0.72 0.72 89 1013.1
20260505204103 58 0 0.0 0.0 0.00 0.72 0.72 89 1013.2
20260505204003 58 0 0.0 0.0 0.00 0.72 0.72 89 1013.2
20260505203903 58 0 0.0 0.0 0.00 0.72 0.72 89 1013.2
20260505203803 58 0 0.0 0.0 0.00 0.72 0.72 89 1013.2
20260505203703 58 0 0.0 0.0 0.00 0.72 0.72 89 1013.2
20260505203603 58 0 0.0 0.0 0.00 0.72 0.72 89 1013.2
20260505203503 58 0 0.0 0.0 0.00 0.72 0.72 89 1013.2
20260505203403 58 0 0.0 0.0 0.00 0.72 0.72 89 1013.1
20260505203303 58 0 0.0 0.0 0.00 0.72 0.72 89 1013.1
20260505203203 58 0 0.0 0.0 0.00 0.72 0.72 89 1013.2
20260505203103 58 0 0.0 0.0 0.00 0.72 0.72 89 1013.2
20260505203003 58 0 0.0 0.0 0.00 0.72 0.72 89 1013.2
20260505202903 58 0 0.0 0.0 0.00 0.72 0.72 89 1013.2
20260505202803 58 0 0.0 0.0 0.00 0.72 0.72 89 1013.2
20260505202703 58 0 0.0 0.0 0.00 0.72 0.72 89 1013.2
20260505202603 58 0 0.0 0.0 0.00 0.72 0.72 89 1013.2
20260505202503 58 0 0.0 0.0 0.00 0.72 0.72 89 1013.2
20260505202403 58 0 0.0 0.0 0.00 0.72 0.72 89 1013.2
20260505202306 58 0 0.0 0.0 0.00 0.72 0.72 88 1013.2
20260505202203 58 0 0.0 0.0 0.00 0.72 0.72 88 1013.2
20260505202103 58 0 0.0 0.0 0.00 0.72 0.72 88 1013.2
20260505202004 58 0 0.0 0.0 0.00 0.72 0.72 88 1013.2
20260505201903 58 0 0.0 0.0 0.00 0.72 0.72 88 1013.2
20260505201803 58 0 0.0 0.0 0.00 0.72 0.72 88 1013.3
20260505201703 58 0 0.0 0.0 0.00 0.72 0.72 88 1013.3
20260505201603 58 0 0.0 0.0 0.00 0.72 0.72 88 1013.3
20260505201503 58 0 0.0 0.0 0.00 0.72 0.72 88 1013.3
20260505201403 58 0 0.0 0.0 0.00 0.72 0.72 88 1013.3
20260505201303 58 0 0.0 0.0 0.00 0.72 0.72 88 1013.3
20260505201203 58 0 0.0 0.0 0.00 0.72 0.72 88 1013.3
20260505201103 58 0 0.0 0.0 0.00 0.72 0.72 88 1013.3
20260505201003 58 0 0.0 0.0 0.00 0.72 0.72 88 1013.3
20260505200903 58 0 0.0 0.0 0.00 0.72 0.72 88 1013.3
20260505200803 58 0 0.0 0.0 0.00 0.72 0.72 88 1013.4
20260505200703 58 0 0.0 0.0 0.00 0.72 0.72 88 1013.4
20260505200603 58 0 0.0 0.0 0.00 0.72 0.72 88 1013.3
20260505200503 58 0 0.0 0.0 0.00 0.72 0.72 88 1013.3
20260505200403 58 0 0.0 0.0 0.00 0.72 0.72 88 1013.3
20260505200303 58 0 0.0 0.0 0.00 0.72 0.72 88 1013.3
20260505200203 58 0 0.0 0.0 0.00 0.72 0.72 88 1013.3
20260505200103 58 0 0.0 0.0 0.00 0.72 0.72 88 1013.3
20260505200004 59 0 0.0 0.0 0.00 0.72 0.72 88 1013.3
20260505195903 59 0 0.0 0.0 0.00 0.72 0.72 88 1013.3
20260505195803 59 0 0.0 0.0 0.00 0.72 0.72 88 1013.4
20260505195703 59 0 0.0 0.0 0.00 0.72 0.72 88 1013.3
20260505195603 59 0 0.0 0.0 0.00 0.72 0.72 88 1013.3
20260505195503 59 0 0.0 0.0 0.00 0.72 0.72 88 1013.3
20260505195403 59 0 0.0 0.0 0.00 0.72 0.72 88 1013.3
20260505195305 59 0 0.0 0.0 0.00 0.72 0.72 88 1013.3
20260505195203 59 0 0.0 0.0 0.00 0.72 0.72 88 1013.3
20260505195103 59 0 0.0 0.0 0.00 0.72 0.72 88 1013.3
20260505195003 59 0 0.0 0.0 0.00 0.72 0.72 88 1013.3
20260505194903 59 0 0.0 0.0 0.00 0.72 0.72 88 1013.2
20260505194803 59 0 0.0 0.0 0.00 0.72 0.72 88 1013.3
20260505194703 59 0 0.0 0.0 0.00 0.72 0.72 88 1013.2
20260505194603 59 0 0.0 0.0 0.00 0.72 0.72 88 1013.2
20260505194503 59 0 0.0 0.0 0.00 0.72 0.72 88 1013.2
20260505194403 59 0 0.0 0.0 0.00 0.72 0.72 88 1013.2
20260505194303 59 0 0.0 0.0 0.00 0.72 0.72 88 1013.2
20260505194203 59 0 0.0 0.0 0.00 0.72 0.72 88 1013.2
20260505194103 59 0 0.0 0.0 0.00 0.72 0.72 88 1013.2
20260505194003 60 0 0.0 0.0 0.00 0.72 0.72 87 1013.2
20260505193903 60 0 0.0 0.0 0.00 0.72 0.72 88 1013.2
20260505193803 60 0 0.0 0.0 0.00 0.72 0.72 88 1013.2
20260505193703 60 0 0.0 0.0 0.00 0.72 0.72 87 1013.2
20260505193603 60 0 0.0 0.0 0.00 0.72 0.72 87 1013.2
20260505193503 60 0 0.0 0.0 0.00 0.72 0.72 87 1013.1
20260505193403 60 0 0.0 0.0 0.00 0.72 0.72 87 1013.2
20260505193303 60 0 0.0 0.0 0.00 0.72 0.72 87 1013.2
20260505193203 60 0 0.0 0.0 0.00 0.72 0.72 87 1013.1
20260505193104 60 0 0.0 0.0 0.00 0.72 0.72 87 1013.1
20260505193003 60 0 0.0 0.0 0.00 0.72 0.72 87 1013.1
20260505192903 60 0 0.0 0.0 0.00 0.72 0.72 87 1013.1
20260505192803 60 0 0.0 0.0 0.00 0.72 0.72 87 1013.0
20260505192703 60 0 0.0 0.0 0.00 0.72 0.72 87 1013.0
20260505192603 60 0 0.0 0.0 0.00 0.72 0.72 87 1013.1
20260505192504 60 0 0.0 0.0 0.00 0.72 0.72 87 1013.0
20260505192403 60 0 0.0 0.0 0.00 0.72 0.72 87 1013.0
20260505192305 60 0 0.0 0.0 0.00 0.72 0.72 87 1013.0
20260505192203 60 0 0.0 0.0 0.00 0.72 0.72 87 1013.0
20260505192103 60 0 0.0 0.0 0.00 0.72 0.72 87 1013.0
20260505192003 60 0 0.0 0.0 0.00 0.72 0.72 87 1013.0
20260505191903 60 0 0.0 0.0 0.00 0.72 0.72 87 1013.0
20260505191803 60 0 0.0 0.0 0.00 0.72 0.72 87 1013.0
20260505191703 61 0 0.0 0.0 0.00 0.72 0.72 86 1013.0
20260505191603 61 0 0.0 0.0 0.00 0.72 0.72 86 1013.0
20260505191503 61 0 0.0 0.0 0.00 0.72 0.72 86 1013.0
20260505191403 61 0 0.0 0.0 0.00 0.72 0.72 86 1013.0
20260505191315 61 0 0.0 0.0 0.00 0.72 0.72 86 1013.0
20260505191203 61 0 0.0 0.0 0.00 0.72 0.72 86 1013.0
20260505191103 61 0 0.0 0.0 0.00 0.72 0.72 86 1013.0
20260505191003 61 0 0.0 0.0 0.00 0.72 0.72 86 1013.0
20260505190903 61 0 0.0 0.0 0.00 0.72 0.72 86 1013.0
20260505190803 61 0 0.0 0.0 0.00 0.72 0.72 86 1013.0
20260505190703 61 0 0.0 0.0 0.00 0.72 0.72 86 1013.0
20260505190603 61 0 0.0 0.0 0.00 0.72 0.72 86 1013.0
20260505190503 61 0 0.0 0.0 0.00 0.72 0.72 86 1012.9
20260505190404 61 0 0.0 0.0 0.00 0.72 0.72 86 1013.0
20260505190303 61 0 0.0 0.0 0.00 0.72 0.72 86 1012.9
20260505190204 61 0 0.0 0.0 0.00 0.72 0.72 85 1012.9
20260505190103 62 0 0.0 0.0 0.00 0.72 0.72 86 1012.9
20260505190003 62 0 0.0 0.0 0.00 0.72 0.72 85 1012.9
20260505185903 62 0 0.0 0.0 0.00 0.72 0.72 85 1012.9
20260505185803 62 0 0.0 0.0 0.00 0.72 0.72 85 1012.9
20260505185703 62 0 0.0 0.0 0.00 0.72 0.72 85 1012.9
20260505185603 62 0 0.0 0.0 0.00 0.72 0.72 85 1012.9
20260505185503 62 0 0.0 0.0 0.00 0.72 0.72 85 1012.8
20260505185403 62 0 0.0 0.0 0.00 0.72 0.72 85 1012.8
20260505185305 62 0 0.0 0.0 0.00 0.72 0.72 85 1012.9
20260505185203 62 0 0.0 0.0 0.00 0.72 0.72 85 1012.9
20260505185103 62 0 0.0 0.0 0.00 0.72 0.72 85 1012.8
20260505185003 62 0 0.0 0.0 0.00 0.72 0.72 84 1012.9
20260505184903 62 0 0.0 0.0 0.00 0.72 0.72 84 1012.8
20260505184803 62 0 0.0 0.0 0.00 0.72 0.72 84 1012.8
20260505184703 62 0 0.0 0.0 0.00 0.72 0.72 84 1012.8
20260505184603 63 0 0.0 0.0 0.00 0.72 0.72 84 1012.8
20260505184503 63 0 0.0 0.0 0.00 0.72 0.72 83 1012.8
20260505184403 63 0 0.0 0.0 0.00 0.72 0.72 83 1012.8
20260505184303 63 0 0.0 0.0 0.00 0.72 0.72 83 1012.8
20260505184204 63 0 0.0 0.0 0.00 0.72 0.72 83 1012.8
20260505184103 63 0 0.0 0.0 0.00 0.72 0.72 83 1012.8
20260505184003 63 0 0.0 0.0 0.00 0.72 0.72 82 1012.9
20260505183903 64 0 0.0 0.0 0.00 0.72 0.72 82 1012.9
20260505183803 64 0 0.0 0.0 0.00 0.72 0.72 82 1012.9
20260505183703 64 0 0.0 0.0 0.00 0.72 0.72 82 1012.9
20260505183603 64 0 0.0 0.0 0.00 0.72 0.72 81 1013.0
20260505183503 64 0 0.0 0.0 0.00 0.72 0.72 81 1013.0
20260505183403 64 0 0.0 0.0 0.00 0.72 0.72 81 1013.0
20260505183303 64 0 0.0 0.0 0.00 0.72 0.72 81 1013.0
20260505183203 64 0 0.9 0.0 0.00 0.72 0.72 81 1013.0
20260505183104 64 0 0.9 0.0 0.00 0.72 0.72 80 1013.0
20260505183005 64 0 0.9 0.0 0.00 0.72 0.72 81 1012.9
20260505182903 64 235 0.9 2.6 0.00 0.72 0.72 80 1013.0
20260505182803 64 235 1.7 2.6 0.00 0.72 0.72 80 1012.9
20260505182703 64 235 1.7 3.5 0.00 0.72 0.72 80 1012.9
20260505182603 64 236 1.7 5.2 0.00 0.72 0.72 80 1012.9
20260505182503 65 235 1.7 5.2 0.00 0.72 0.72 80 1012.9
20260505182403 65 233 1.7 5.2 0.00 0.72 0.72 80 1012.8
20260505182306 65 232 2.6 5.2 0.00 0.72 0.72 80 1012.8
20260505182203 65 231 2.6 5.2 0.00 0.72 0.72 80 1012.8
20260505182103 65 230 2.6 5.2 0.00 0.72 0.72 80 1012.7
20260505182003 65 228 2.6 7.0 0.00 0.72 0.72 80 1012.8
20260505181903 65 228 2.6 7.0 0.00 0.72 0.72 80 1012.7
20260505181803 65 228 2.6 7.0 0.00 0.72 0.72 80 1012.8
20260505181703 65 228 2.6 7.0 0.00 0.72 0.72 80 1012.8
20260505181603 65 225 2.6 7.0 0.00 0.72 0.72 80 1012.7
20260505181503 65 223 2.6 7.8 0.00 0.72 0.72 80 1012.8
20260505181403 65 225 2.6 7.8 0.00 0.72 0.72 80 1012.8
20260505181303 65 224 2.6 7.8 0.00 0.72 0.72 80 1012.8
20260505181203 65 223 2.6 7.8 0.00 0.72 0.72 80 1012.9
20260505181103 65 223 2.6 7.8 0.00 0.72 0.72 79 1012.9
20260505181003 65 225 2.6 7.8 0.00 0.72 0.72 79 1012.9
20260505180903 65 226 2.6 7.8 0.00 0.72 0.72 79 1012.9
20260505180803 65 226 2.6 7.8 0.00 0.72 0.72 79 1012.8
20260505180703 65 225 2.6 7.8 0.00 0.72 0.72 79 1012.8
20260505180603 65 226 2.6 7.8 0.00 0.72 0.72 80 1012.8
20260505180503 65 226 2.6 7.0 0.00 0.72 0.72 79 1012.8
20260505180404 65 226 2.6 7.0 0.00 0.72 0.72 79 1012.8
20260505180303 65 226 2.6 7.0 0.00 0.72 0.72 79 1012.8
20260505180203 65 227 2.6 7.0 0.00 0.72 0.72 79 1012.8
20260505180103 65 225 2.6 7.0 0.00 0.72 0.72 79 1012.8
20260505180003 65 223 2.6 7.0 0.00 0.72 0.72 79 1012.8
20260505175903 65 218 2.6 7.0 0.00 0.72 0.72 79 1012.8
20260505175803 65 217 2.6 7.0 0.00 0.72 0.72 79 1012.8
20260505175703 65 216 2.6 7.0 0.00 0.72 0.72 79 1012.9
20260505175604 65 216 3.5 7.0 0.00 0.72 0.72 80 1012.9
20260505175503 65 215 3.5 6.1 0.00 0.72 0.72 80 1012.9
20260505175403 65 214 3.5 6.1 0.00 0.72 0.72 80 1012.9
20260505175305 65 212 3.5 6.1 0.00 0.72 0.72 80 1012.9
20260505175204 65 211 3.5 7.0 0.00 0.72 0.72 79 1012.9
20260505175103 65 211 3.5 8.7 0.00 0.72 0.72 79 1012.9
20260505175003 65 211 3.5 8.7 0.00 0.72 0.72 79 1012.8
20260505174903 65 211 3.5 8.7 0.00 0.72 0.72 79 1012.9
20260505174803 65 211 3.5 8.7 0.00 0.72 0.72 79 1012.9
20260505174703 65 210 3.5 8.7 0.00 0.72 0.72 79 1012.8
20260505174603 65 211 3.5 8.7 0.00 0.72 0.72 79 1012.8
20260505174503 65 212 4.3 8.7 0.00 0.72 0.72 79 1012.8
20260505174403 65 210 4.3 9.6 0.00 0.72 0.72 79 1012.9
20260505174303 65 210 4.3 9.6 0.00 0.72 0.72 79 1012.9
20260505174203 65 211 4.3 9.6 0.00 0.72 0.72 79 1012.9
20260505174103 65 212 4.3 9.6 0.00 0.72 0.72 79 1012.9
20260505174003 65 212 4.3 9.6 0.00 0.72 0.72 79 1012.8
20260505173903 65 212 4.3 9.6 0.00 0.72 0.72 79 1012.9
20260505173803 65 211 4.3 9.6 0.00 0.72 0.72 79 1012.9
20260505173703 65 213 4.3 9.6 0.00 0.72 0.72 79 1012.9
20260505173603 65 212 4.3 9.6 0.00 0.72 0.72 79 1012.9
20260505173503 65 212 4.3 9.6 0.00 0.72 0.72 79 1012.9
20260505173403 65 215 4.3 11.3 0.00 0.72 0.72 79 1012.9
20260505173303 65 215 4.3 11.3 0.00 0.72 0.72 79 1012.9
20260505173203 65 216 4.3 11.3 0.00 0.72 0.72 79 1012.9
20260505173103 65 217 4.3 11.3 0.00 0.72 0.72 79 1012.9
20260505173003 65 218 4.3 11.3 0.00 0.72 0.72 79 1012.9
20260505172903 65 222 4.3 11.3 0.00 0.72 0.72 79 1012.9
20260505172803 65 223 4.3 11.3 0.00 0.72 0.72 79 1012.9
20260505172703 65 221 4.3 11.3 0.00 0.72 0.72 79 1012.9
20260505172603 65 222 4.3 11.3 0.00 0.72 0.72 79 1012.8
20260505172503 65 222 4.3 11.3 0.00 0.72 0.72 79 1012.8
20260505172403 65 223 4.3 9.6 0.00 0.72 0.72 79 1012.8
20260505172305 65 225 4.3 9.6 0.00 0.72 0.72 80 1012.8
20260505172203 65 223 4.3 9.6 0.00 0.72 0.72 80 1012.8